BAW199 EGLL-VABB

Flight info

Callsign BAW199
Flight time 9h 28m
Altitude 37000
Route DET L6 DVR UL9 KONAN DCT KOK DCT KOMOB DCT PITES DCT BABEG DCT KUMOM DCT VEKEN DCT ELTIB DCT AKIKA DCT MAVAR DCT BITLA UN132 KEA UL607 PAXIS L607 NABSI/N0477F390 P557 OBRAN L321 REXUM M872 PMA Y214 RAPMA DCT MEVDO DCT ALROK DCT DEBIN DCT MIDGU/N0482F410 M440 TULBU N881 AMBOS M700 PARAR N571 SUGID KETOR2A
Aircraft B772/H-SDE2E3FGHIJ5LORVWXY/LB1D1

Departure

Time 2026-05-06 19:22
Airport London Heathrow Airport (EGLL)

Arrival

Time 2026-05-07 04:51
Airport Chhatrapati Shivaji Maharaj International Airport (VABB)
Time Latitude Longitude Altitude Speed Heading
2026-05-06 18:38 51.46980 -0.48018 84 ft 0 kts 270°
2026-05-06 19:12 51.46980 -0.48010 84 ft 2 kts 270°
2026-05-06 19:12 51.46980 -0.47986 84 ft 2 kts 270°
2026-05-06 19:12 51.46980 -0.47962 84 ft 2 kts 270°
2026-05-06 19:13 51.46980 -0.47943 84 ft 0 kts 270°
2026-05-06 19:13 51.46981 -0.47923 84 ft 2 kts 256°
2026-05-06 19:13 51.46987 -0.47901 84 ft 2 kts 234°
2026-05-06 19:13 51.46997 -0.47883 84 ft 2 kts 214°
2026-05-06 19:14 51.47011 -0.47873 84 ft 2 kts 195°
2026-05-06 19:14 51.47022 -0.47869 84 ft 0 kts 180°
2026-05-06 19:14 51.47026 -0.47870 84 ft 0 kts 179°
2026-05-06 19:16 51.47025 -0.47870 84 ft 0 kts 179°
2026-05-06 19:16 51.46988 -0.47869 84 ft 8 kts 179°
2026-05-06 19:17 51.46922 -0.47870 84 ft 10 kts 181°
2026-05-06 19:17 51.46802 -0.47869 84 ft 24 kts 180°
2026-05-06 19:17 51.46669 -0.47930 83 ft 20 kts 242°
2026-05-06 19:17 51.46664 -0.47953 83 ft 1 kts 252°
2026-05-06 19:18 51.46658 -0.47984 84 ft 8 kts 255°
2026-05-06 19:18 51.46653 -0.48092 83 ft 10 kts 270°
2026-05-06 19:18 51.46653 -0.48124 83 ft 1 kts 270°
2026-05-06 19:18 51.46653 -0.48224 83 ft 13 kts 269°
2026-05-06 19:19 51.46652 -0.48383 83 ft 14 kts 270°
2026-05-06 19:19 51.46650 -0.48552 83 ft 15 kts 270°
2026-05-06 19:19 51.46632 -0.48723 83 ft 16 kts 231°
2026-05-06 19:19 51.46526 -0.48763 83 ft 16 kts 156°
2026-05-06 19:20 51.46481 -0.48606 83 ft 16 kts 95°
2026-05-06 19:20 51.46476 -0.48497 83 ft 0 kts 87°
2026-05-06 19:21 51.46477 -0.48478 83 ft 8 kts 87°
2026-05-06 19:21 51.46482 -0.48089 83 ft 68 kts 89°
2026-05-06 19:21 51.46483 -0.46960 84 ft 130 kts 90°
2026-05-06 19:21 51.46489 -0.45238 94 ft 176 kts 88°
2026-05-06 19:22 51.46477 -0.43216 548 ft 184 kts 90°
2026-05-06 19:22 51.46469 -0.41237 1363 ft 179 kts 94°
2026-05-06 19:22 51.46173 -0.39280 1762 ft 191 kts 110°
2026-05-06 19:22 51.45407 -0.37383 2005 ft 211 kts 129°
2026-05-06 19:23 51.44443 -0.35535 2234 ft 225 kts 118°
2026-05-06 19:23 51.43749 -0.33236 2665 ft 229 kts 109°
2026-05-06 19:23 51.43229 -0.30848 3157 ft 232 kts 105°
2026-05-06 19:23 51.42789 -0.28321 3642 ft 237 kts 102°
2026-05-06 19:24 51.42410 -0.25678 3998 ft 251 kts 101°
2026-05-06 19:24 51.42034 -0.22899 4549 ft 257 kts 101°
2026-05-06 19:24 51.41654 -0.20110 5126 ft 261 kts 101°
2026-05-06 19:24 51.41260 -0.17243 5652 ft 266 kts 101°
2026-05-06 19:25 51.40858 -0.14317 5952 ft 271 kts 102°
2026-05-06 19:25 51.40451 -0.11371 5976 ft 270 kts 102°
2026-05-06 19:25 51.40048 -0.08448 5980 ft 269 kts 102°
2026-05-06 19:25 51.39640 -0.05506 5981 ft 269 kts 102°
2026-05-06 19:26 51.39235 -0.02587 5978 ft 269 kts 102°
2026-05-06 19:26 51.38827 0.00351 5975 ft 270 kts 102°
2026-05-06 19:26 51.38423 0.03246 5974 ft 271 kts 102°
2026-05-06 19:26 51.38003 0.06264 6475 ft 275 kts 102°
2026-05-06 19:27 51.37588 0.09223 7203 ft 273 kts 102°
2026-05-06 19:27 51.37175 0.12179 7724 ft 278 kts 101°
2026-05-06 19:27 51.36746 0.15232 8281 ft 281 kts 101°
2026-05-06 19:27 51.36320 0.18262 8826 ft 284 kts 101°
2026-05-06 19:28 51.35882 0.21370 9370 ft 288 kts 101°
2026-05-06 19:28 51.35443 0.24480 9899 ft 291 kts 101°
2026-05-06 19:28 51.34992 0.27668 10290 ft 300 kts 101°
2026-05-06 19:28 51.34522 0.30987 10471 ft 316 kts 101°
2026-05-06 19:29 51.34022 0.34501 10654 ft 332 kts 101°
2026-05-06 19:29 51.33496 0.38192 10869 ft 348 kts 101°
2026-05-06 19:29 51.32946 0.42044 11212 ft 357 kts 101°
2026-05-06 19:29 51.32389 0.45928 11801 ft 361 kts 101°
2026-05-06 19:30 51.31824 0.49864 12415 ft 365 kts 101°
2026-05-06 19:30 51.31253 0.53824 13006 ft 368 kts 101°
2026-05-06 19:30 51.30678 0.57812 13622 ft 371 kts 101°
2026-05-06 19:30 51.30077 0.61824 14210 ft 375 kts 104°
2026-05-06 19:31 51.29342 0.65841 14820 ft 379 kts 106°
2026-05-06 19:31 51.28589 0.69872 15428 ft 383 kts 106°
2026-05-06 19:31 51.27061 0.78098 16641 ft 390 kts 106°
2026-05-06 19:32 51.26237 0.82551 17242 ft 395 kts 106°
2026-05-06 19:32 51.25452 0.86793 17798 ft 399 kts 106°
2026-05-06 19:32 51.24667 0.91027 18377 ft 402 kts 106°
2026-05-06 19:32 51.23873 0.95308 18930 ft 405 kts 106°
2026-05-06 19:33 51.23068 0.99640 19529 ft 407 kts 106°
2026-05-06 19:33 51.22272 1.03916 20065 ft 410 kts 107°
2026-05-06 19:33 51.21524 1.08353 20587 ft 414 kts 100°
2026-05-06 19:33 51.21135 1.12876 21096 ft 417 kts 96°
2026-05-06 19:34 51.20812 1.17447 21617 ft 419 kts 96°
2026-05-06 19:34 51.20484 1.22091 22112 ft 423 kts 96°
2026-05-06 19:34 51.20152 1.26778 22632 ft 426 kts 96°
2026-05-06 19:34 51.19819 1.31442 23105 ft 429 kts 96°
2026-05-06 19:35 51.19481 1.36163 23564 ft 432 kts 96°
2026-05-06 19:35 51.19137 1.40932 24029 ft 435 kts 96°
2026-05-06 19:35 51.18788 1.45744 24490 ft 438 kts 96°
2026-05-06 19:35 51.18435 1.50583 24959 ft 441 kts 96°
2026-05-06 19:36 51.18078 1.55440 25442 ft 443 kts 96°
2026-05-06 19:36 51.17718 1.60315 25903 ft 446 kts 96°
2026-05-06 19:36 51.17357 1.65172 26342 ft 448 kts 97°
2026-05-06 19:36 51.16985 1.70159 26752 ft 451 kts 97°
2026-05-06 19:37 51.16609 1.75164 27170 ft 453 kts 97°
2026-05-06 19:37 51.16232 1.80150 27568 ft 456 kts 97°
2026-05-06 19:37 51.15809 1.85175 27958 ft 458 kts 101°
2026-05-06 19:37 51.15308 1.88462 28194 ft 459 kts 108°
2026-05-06 19:38 51.13766 1.94768 28621 ft 462 kts 114°
2026-05-06 19:38 51.12494 1.99461 28963 ft 464 kts 114°
2026-05-06 19:38 51.11217 2.04149 29285 ft 467 kts 114°
2026-05-06 19:38 51.09904 2.08961 29610 ft 469 kts 114°
2026-05-06 19:39 51.08609 2.13696 29958 ft 471 kts 114°
2026-05-06 19:39 51.07297 2.18484 30288 ft 473 kts 114°
2026-05-06 19:39 51.05986 2.23262 30612 ft 475 kts 114°
2026-05-06 19:39 51.04665 2.28063 30949 ft 477 kts 114°
2026-05-06 19:40 51.03329 2.32911 31253 ft 478 kts 114°
2026-05-06 19:40 51.01980 2.37793 31555 ft 480 kts 114°
2026-05-06 19:40 51.00636 2.42649 31855 ft 482 kts 114°
2026-05-06 19:40 50.99268 2.47579 32122 ft 485 kts 114°
2026-05-06 19:41 50.97929 2.52399 32379 ft 488 kts 114°
2026-05-06 19:41 50.96553 2.57338 32655 ft 490 kts 114°
2026-05-06 19:41 50.95183 2.62246 32976 ft 491 kts 114°
2026-05-06 19:41 50.93786 2.67238 33398 ft 489 kts 114°
2026-05-06 19:42 50.92414 2.72135 33864 ft 487 kts 114°
2026-05-06 19:42 50.91023 2.77086 34306 ft 485 kts 114°
2026-05-06 19:42 50.89651 2.81961 34658 ft 484 kts 114°
2026-05-06 19:42 50.88261 2.86889 34962 ft 484 kts 114°
2026-05-06 19:43 50.86886 2.91753 35213 ft 484 kts 114°
2026-05-06 19:43 50.85504 2.96633 35444 ft 484 kts 114°
2026-05-06 19:43 50.84183 3.01288 35687 ft 483 kts 114°
2026-05-06 19:43 50.82823 3.06070 35903 ft 483 kts 114°
2026-05-06 19:44 50.81443 3.10912 36107 ft 483 kts 114°
2026-05-06 19:44 50.80053 3.15782 36287 ft 483 kts 114°
2026-05-06 19:44 50.78675 3.20597 36462 ft 483 kts 114°
2026-05-06 19:44 50.77292 3.25420 36644 ft 483 kts 114°
2026-05-06 19:45 50.75894 3.30288 36800 ft 484 kts 114°
2026-05-06 19:45 50.74513 3.35085 36917 ft 485 kts 115°
2026-05-06 19:45 50.71718 3.44764 36948 ft 486 kts 115°
2026-05-06 19:46 50.68919 3.54418 36955 ft 487 kts 115°
2026-05-06 19:46 50.67520 3.59230 37099 ft 488 kts 115°
2026-05-06 19:46 50.66102 3.64095 37320 ft 485 kts 115°
2026-05-06 19:47 50.64705 3.68881 37497 ft 484 kts 116°
2026-05-06 19:47 50.63298 3.73691 37609 ft 485 kts 116°
2026-05-06 19:47 50.61917 3.78403 37715 ft 486 kts 116°
2026-05-06 19:47 50.60593 3.82911 37828 ft 487 kts 116°
2026-05-06 19:48 50.59139 3.87852 37991 ft 486 kts 116°
2026-05-06 19:48 50.57706 3.92711 38115 ft 486 kts 116°
2026-05-06 19:48 50.56285 3.97519 38239 ft 486 kts 116°
2026-05-06 19:48 50.54853 4.02358 38361 ft 486 kts 116°
2026-05-06 19:49 50.53428 4.07160 38474 ft 486 kts 116°
2026-05-06 19:49 50.52014 4.11917 38576 ft 487 kts 116°
2026-05-06 19:49 50.50575 4.16748 38681 ft 487 kts 116°
2026-05-06 19:49 50.49134 4.21578 38811 ft 487 kts 116°
2026-05-06 19:50 50.47710 4.26342 38918 ft 486 kts 116°
2026-05-06 19:50 50.46268 4.31153 38931 ft 487 kts 116°
2026-05-06 19:50 50.43400 4.40696 38931 ft 487 kts 116°
2026-05-06 19:51 50.40514 4.50264 38935 ft 486 kts 116°
2026-05-06 19:51 50.37630 4.59788 38933 ft 486 kts 116°
2026-05-06 19:52 50.34732 4.69316 38928 ft 486 kts 117°
2026-05-06 19:52 50.31827 4.78834 38924 ft 486 kts 117°
2026-05-06 19:53 50.28947 4.88234 38919 ft 486 kts 117°
2026-05-06 19:53 50.26020 4.97750 38941 ft 487 kts 117°
2026-05-06 19:54 50.24560 5.02479 39059 ft 487 kts 117°
2026-05-06 19:54 50.23088 5.07245 39215 ft 486 kts 117°
2026-05-06 19:54 50.21632 5.11945 39334 ft 485 kts 117°
2026-05-06 19:54 50.20173 5.16648 39425 ft 485 kts 117°
2026-05-06 19:55 50.17236 5.26083 39588 ft 485 kts 117°
2026-05-06 19:55 50.14279 5.35550 39742 ft 485 kts 117°
2026-05-06 19:56 50.11317 5.44996 39873 ft 485 kts 117°
2026-05-06 19:56 50.08346 5.54435 39976 ft 486 kts 117°
2026-05-06 19:57 50.05384 5.63807 40124 ft 485 kts 117°
2026-05-06 19:57 50.02479 5.72969 40225 ft 484 kts 118°
2026-05-06 19:58 49.99559 5.82142 40297 ft 484 kts 118°
2026-05-06 19:58 49.96563 5.91519 40364 ft 484 kts 118°
2026-05-06 19:59 49.93561 6.00878 40447 ft 484 kts 118°
2026-05-06 19:59 49.90623 6.10004 40516 ft 484 kts 118°
2026-05-06 20:00 49.87685 6.19097 40577 ft 484 kts 118°
2026-05-06 20:00 49.84655 6.28442 40645 ft 484 kts 118°
2026-05-06 20:01 49.81646 6.37686 40691 ft 484 kts 118°
2026-05-06 20:01 49.78635 6.46902 40738 ft 484 kts 118°
2026-05-06 20:02 49.75609 6.56130 40755 ft 484 kts 118°
2026-05-06 20:02 49.72636 6.65165 40790 ft 484 kts 119°
2026-05-06 20:03 49.69585 6.74402 40884 ft 480 kts 119°
2026-05-06 20:03 49.66533 6.83613 40879 ft 479 kts 119°
2026-05-06 20:04 49.63492 6.92752 40874 ft 477 kts 119°
2026-05-06 20:04 49.60462 7.01828 40878 ft 475 kts 119°
2026-05-06 20:05 49.57444 7.10835 40879 ft 473 kts 119°
2026-05-06 20:05 49.55946 7.15294 40776 ft 467 kts 119°
2026-05-06 20:05 49.54460 7.19712 40034 ft 469 kts 119°
2026-05-06 20:06 49.52961 7.24156 39202 ft 476 kts 119°
2026-05-06 20:06 49.51404 7.28763 38901 ft 483 kts 119°
2026-05-06 20:06 49.48304 7.37913 38874 ft 485 kts 119°
2026-05-06 20:07 49.45194 7.47063 38870 ft 484 kts 119°
2026-05-06 20:07 49.42088 7.56171 38864 ft 484 kts 120°
2026-05-06 20:08 49.38990 7.65219 38865 ft 484 kts 120°
2026-05-06 20:08 49.35832 7.74413 38867 ft 483 kts 120°
2026-05-06 20:09 49.32771 7.83293 38864 ft 484 kts 120°
2026-05-06 20:09 49.29634 7.92359 38857 ft 484 kts 120°
2026-05-06 20:10 49.26557 8.01222 38862 ft 484 kts 121°
2026-05-06 20:10 49.23394 8.10300 38865 ft 484 kts 121°
2026-05-06 20:11 49.20241 8.19321 38863 ft 483 kts 121°
2026-05-06 20:11 49.17093 8.28293 38866 ft 482 kts 121°
2026-05-06 20:12 49.13929 8.37281 38875 ft 483 kts 121°
2026-05-06 20:12 49.10733 8.46327 38882 ft 483 kts 121°
2026-05-06 20:13 49.07538 8.55338 38887 ft 482 kts 121°
2026-05-06 20:13 49.04356 8.64282 38880 ft 482 kts 121°
2026-05-06 20:14 49.01215 8.73082 38879 ft 480 kts 121°
2026-05-06 20:14 48.98092 8.81800 38881 ft 479 kts 121°
2026-05-06 20:15 48.94948 8.90548 38881 ft 481 kts 122°
2026-05-06 20:15 48.91904 8.98991 38873 ft 480 kts 122°
2026-05-06 20:16 48.88702 9.07842 38872 ft 481 kts 122°
2026-05-06 20:16 48.85490 9.16689 38877 ft 480 kts 122°
2026-05-06 20:17 48.82271 9.25528 38875 ft 480 kts 122°
2026-05-06 20:17 48.79044 9.34357 38893 ft 481 kts 122°
2026-05-06 20:18 48.75899 9.42933 38878 ft 479 kts 122°
2026-05-06 20:18 48.72651 9.51761 38874 ft 480 kts 122°
2026-05-06 20:19 48.69382 9.60618 38881 ft 480 kts 122°
2026-05-06 20:19 48.66283 9.68839 38891 ft 479 kts 124°
2026-05-06 20:20 48.64675 9.72951 38893 ft 480 kts 124°
2026-05-06 20:20 48.61292 9.81568 38895 ft 479 kts 124°
2026-05-06 20:21 48.58339 9.89064 38881 ft 479 kts 124°
2026-05-06 20:21 48.54950 9.97641 38891 ft 480 kts 124°
2026-05-06 20:22 48.51517 10.06298 38882 ft 479 kts 124°
2026-05-06 20:22 48.48110 10.14865 38894 ft 478 kts 124°
2026-05-06 20:23 48.44691 10.23431 38898 ft 479 kts 124°
2026-05-06 20:23 48.41282 10.31948 38893 ft 479 kts 124°
2026-05-06 20:24 48.37822 10.40564 38893 ft 479 kts 124°
2026-05-06 20:24 48.34382 10.49100 38904 ft 480 kts 124°
2026-05-06 20:25 48.30914 10.57683 38888 ft 478 kts 124°
2026-05-06 20:25 48.27514 10.66067 38912 ft 479 kts 125°
2026-05-06 20:26 48.24073 10.74527 38904 ft 478 kts 125°
2026-05-06 20:26 48.20595 10.83051 38890 ft 477 kts 125°
2026-05-06 20:27 48.17117 10.91548 38907 ft 477 kts 125°
2026-05-06 20:27 48.13644 11.00007 38915 ft 476 kts 126°
2026-05-06 20:28 48.10181 11.08414 38910 ft 475 kts 125°
2026-05-06 20:28 48.06719 11.16793 38932 ft 476 kts 125°
2026-05-06 20:29 48.03238 11.25190 38915 ft 477 kts 125°
2026-05-06 20:29 47.99794 11.33474 38913 ft 477 kts 125°
2026-05-06 20:30 47.94738 11.45591 38905 ft 474 kts 126°
2026-05-06 20:31 47.91230 11.53965 38906 ft 476 kts 126°
2026-05-06 20:31 47.87735 11.62283 38918 ft 476 kts 126°
2026-05-06 20:32 47.84277 11.70486 38940 ft 477 kts 126°
2026-05-06 20:32 47.82230 11.75333 38915 ft 476 kts 126°
2026-05-06 20:33 47.78680 11.83713 38939 ft 477 kts 126°
2026-05-06 20:33 47.75128 11.92074 38927 ft 477 kts 126°
2026-05-06 20:34 47.71606 12.00340 38934 ft 476 kts 127°
2026-05-06 20:34 47.68064 12.08627 38933 ft 477 kts 126°
2026-05-06 20:35 47.64524 12.16884 38943 ft 478 kts 127°
2026-05-06 20:35 47.60955 12.25184 38945 ft 477 kts 127°
2026-05-06 20:36 47.57355 12.33339 38934 ft 472 kts 132°
2026-05-06 20:36 47.52745 12.40023 38920 ft 464 kts 147°
2026-05-06 20:37 47.47508 12.45599 38951 ft 464 kts 148°
2026-05-06 20:37 47.42259 12.51083 38954 ft 464 kts 148°
2026-05-06 20:38 47.37000 12.56531 38962 ft 464 kts 148°
2026-05-06 20:38 47.31705 12.61986 38950 ft 465 kts 149°
2026-05-06 20:39 47.26489 12.67338 38946 ft 465 kts 149°
2026-05-06 20:39 47.21189 12.72760 38965 ft 465 kts 149°
2026-05-06 20:40 47.15842 12.78212 38940 ft 465 kts 149°
2026-05-06 20:40 47.10539 12.83605 38930 ft 465 kts 149°
2026-05-06 20:41 47.05211 12.89010 38921 ft 464 kts 149°
2026-05-06 20:41 46.99923 12.94360 38931 ft 466 kts 149°
2026-05-06 20:42 46.94590 12.99743 38916 ft 466 kts 149°
2026-05-06 20:42 46.89284 13.05086 38907 ft 466 kts 149°
2026-05-06 20:43 46.84049 13.10344 38977 ft 467 kts 149°
2026-05-06 20:43 46.78578 13.15826 38952 ft 466 kts 149°
2026-05-06 20:44 46.73239 13.21161 38960 ft 465 kts 149°
2026-05-06 20:44 46.67889 13.26494 38949 ft 468 kts 149°
2026-05-06 20:45 46.62533 13.31821 38951 ft 468 kts 149°
2026-05-06 20:45 46.57185 13.37232 38952 ft 471 kts 145°
2026-05-06 20:46 46.52557 13.44019 38950 ft 476 kts 136°
2026-05-06 20:46 46.48157 13.51162 38944 ft 476 kts 135°
2026-05-06 20:47 46.43757 13.58271 38947 ft 475 kts 135°
2026-05-06 20:47 46.39430 13.65235 38914 ft 474 kts 136°
2026-05-06 20:48 46.34991 13.72355 38950 ft 476 kts 136°
2026-05-06 20:48 46.30523 13.79499 38945 ft 476 kts 136°
2026-05-06 20:49 46.26062 13.86612 38964 ft 477 kts 136°
2026-05-06 20:49 46.21608 13.93695 38936 ft 476 kts 136°
2026-05-06 20:50 46.17171 14.00732 38947 ft 476 kts 136°
2026-05-06 20:50 46.12722 14.07768 38941 ft 477 kts 136°
2026-05-06 20:51 46.08260 14.14809 38940 ft 475 kts 136°
2026-05-06 20:51 46.03815 14.21803 38926 ft 477 kts 136°
2026-05-06 20:52 45.99348 14.28814 38947 ft 477 kts 136°
2026-05-06 20:52 45.94838 14.35873 38941 ft 477 kts 136°
2026-05-06 20:53 45.90370 14.42850 38946 ft 478 kts 136°
2026-05-06 20:53 45.85858 14.49878 38944 ft 478 kts 136°
2026-05-06 20:54 45.81312 14.56940 38953 ft 480 kts 137°
2026-05-06 20:54 45.76785 14.63954 38954 ft 480 kts 136°
2026-05-06 20:55 45.72245 14.70971 38939 ft 479 kts 137°
2026-05-06 20:55 45.67707 14.77965 38933 ft 479 kts 137°
2026-05-06 20:56 45.63164 14.84950 38942 ft 480 kts 138°
2026-05-06 20:56 45.58617 14.91924 38939 ft 480 kts 138°
2026-05-06 20:57 45.54084 14.98858 38942 ft 480 kts 138°
2026-05-06 20:57 45.49525 15.05814 38938 ft 481 kts 138°
2026-05-06 20:58 45.44947 15.12780 38937 ft 483 kts 138°
2026-05-06 20:58 45.40377 15.19717 38941 ft 485 kts 138°
2026-05-06 20:59 45.35788 15.26667 38939 ft 484 kts 138°
2026-05-06 20:59 45.31175 15.33635 38939 ft 483 kts 138°
2026-05-06 21:00 45.26562 15.40584 38942 ft 484 kts 138°
2026-05-06 21:00 45.21957 15.47505 38942 ft 484 kts 138°
2026-05-06 21:01 45.17343 15.54419 38941 ft 486 kts 138°
2026-05-06 21:01 45.12696 15.61366 38944 ft 487 kts 138°
2026-05-06 21:02 45.08075 15.68259 38935 ft 484 kts 139°
2026-05-06 21:02 45.03393 15.75224 38942 ft 485 kts 139°
2026-05-06 21:03 44.98736 15.82134 38960 ft 487 kts 139°
2026-05-06 21:03 44.94080 15.89025 38969 ft 487 kts 139°
2026-05-06 21:04 44.89406 15.95926 38972 ft 487 kts 139°
2026-05-06 21:04 44.84730 16.02812 38979 ft 488 kts 139°
2026-05-06 21:05 44.80032 16.09715 38996 ft 488 kts 139°
2026-05-06 21:05 44.75335 16.16597 38994 ft 489 kts 139°
2026-05-06 21:06 44.70645 16.23452 39007 ft 490 kts 139°
2026-05-06 21:06 44.65938 16.30314 39002 ft 490 kts 139°
2026-05-06 21:07 44.61195 16.37212 39014 ft 489 kts 139°
2026-05-06 21:07 44.56488 16.44040 39006 ft 490 kts 139°
2026-05-06 21:08 44.51756 16.50888 39009 ft 491 kts 139°
2026-05-06 21:08 44.46978 16.57785 39006 ft 493 kts 139°
2026-05-06 21:09 44.42217 16.64640 39018 ft 494 kts 139°
2026-05-06 21:09 44.37419 16.71533 39011 ft 492 kts 139°
2026-05-06 21:10 44.32636 16.78385 39019 ft 493 kts 139°
2026-05-06 21:10 44.27927 16.85391 39041 ft 496 kts 135°
2026-05-06 21:11 44.23530 16.92752 39035 ft 495 kts 135°
2026-05-06 21:11 44.19125 17.00076 39043 ft 497 kts 135°
2026-05-06 21:12 44.14672 17.07427 39035 ft 498 kts 135°
2026-05-06 21:12 44.10189 17.14789 39048 ft 500 kts 135°
2026-05-06 21:13 44.05716 17.22106 39049 ft 500 kts 134°
2026-05-06 21:13 44.01199 17.29470 39054 ft 501 kts 134°
2026-05-06 21:14 43.96695 17.36792 39047 ft 500 kts 134°
2026-05-06 21:14 43.92169 17.44129 39044 ft 502 kts 134°
2026-05-06 21:15 43.87627 17.51472 39049 ft 503 kts 134°
2026-05-06 21:15 43.83054 17.58846 39043 ft 504 kts 134°
2026-05-06 21:16 43.78508 17.66158 39047 ft 503 kts 134°
2026-05-06 21:16 43.73920 17.73519 39035 ft 504 kts 135°
2026-05-06 21:17 43.69346 17.80836 39038 ft 506 kts 134°
2026-05-06 21:17 43.64747 17.88176 39042 ft 507 kts 134°
2026-05-06 21:18 43.60138 17.95514 39048 ft 505 kts 134°
2026-05-06 21:18 43.55541 18.02813 39074 ft 506 kts 134°
2026-05-06 21:19 43.50933 18.10112 39074 ft 506 kts 134°
2026-05-06 21:19 43.46331 18.17382 39077 ft 506 kts 134°
2026-05-06 21:20 43.41726 18.24639 39070 ft 507 kts 134°
2026-05-06 21:20 43.37090 18.31926 39074 ft 506 kts 134°
2026-05-06 21:21 43.32474 18.39165 39085 ft 505 kts 134°
2026-05-06 21:21 43.27826 18.46434 39093 ft 507 kts 134°
2026-05-06 21:22 43.23209 18.53636 39092 ft 507 kts 134°
2026-05-06 21:22 43.18572 18.60853 39109 ft 506 kts 134°
2026-05-06 21:23 43.13879 18.68136 39108 ft 508 kts 134°
2026-05-06 21:23 43.09197 18.75388 39117 ft 506 kts 135°
2026-05-06 21:24 43.04556 18.82555 39113 ft 505 kts 135°
2026-05-06 21:24 42.99922 18.89695 39135 ft 505 kts 135°
2026-05-06 21:25 42.95271 18.96844 39126 ft 504 kts 134°
2026-05-06 21:25 42.90615 19.03981 39133 ft 505 kts 135°
2026-05-06 21:26 42.85947 19.11120 39121 ft 505 kts 134°
2026-05-06 21:26 42.81284 19.18235 39134 ft 505 kts 134°
2026-05-06 21:27 42.76604 19.25356 39140 ft 505 kts 134°
2026-05-06 21:27 42.71931 19.32450 39117 ft 504 kts 134°
2026-05-06 21:28 42.67253 19.39535 39116 ft 504 kts 134°
2026-05-06 21:28 42.62559 19.46625 39120 ft 507 kts 134°
2026-05-06 21:29 42.57861 19.53707 39122 ft 505 kts 134°
2026-05-06 21:29 42.53038 19.60623 39132 ft 504 kts 141°
2026-05-06 21:30 42.47665 19.66615 39136 ft 503 kts 144°
2026-05-06 21:30 42.42219 19.72556 39122 ft 503 kts 144°
2026-05-06 21:31 42.36729 19.78521 39116 ft 504 kts 144°
2026-05-06 21:31 42.31284 19.84419 39099 ft 504 kts 144°
2026-05-06 21:32 42.25808 19.90336 39093 ft 504 kts 144°
2026-05-06 21:32 42.17616 19.99158 39093 ft 504 kts 144°
2026-05-06 21:33 42.12125 20.05053 39090 ft 506 kts 143°
2026-05-06 21:33 42.06612 20.10959 39093 ft 507 kts 144°
2026-05-06 21:34 42.01125 20.16824 39089 ft 508 kts 144°
2026-05-06 21:34 41.95612 20.22704 39091 ft 506 kts 143°
2026-05-06 21:35 41.90113 20.28554 39090 ft 505 kts 143°
2026-05-06 21:35 41.84585 20.34421 39099 ft 504 kts 143°
2026-05-06 21:36 41.79083 20.40249 39104 ft 505 kts 143°
2026-05-06 21:36 41.73596 20.46047 39124 ft 505 kts 143°
2026-05-06 21:37 41.68095 20.51846 39125 ft 505 kts 143°
2026-05-06 21:37 41.62595 20.57655 39123 ft 503 kts 143°
2026-05-06 21:38 41.57142 20.63416 39107 ft 503 kts 143°
2026-05-06 21:38 41.51656 20.69198 39109 ft 504 kts 143°
2026-05-06 21:39 41.46102 20.75038 39119 ft 504 kts 143°
2026-05-06 21:39 41.40631 20.80777 39243 ft 503 kts 143°
2026-05-06 21:40 41.37896 20.83641 39107 ft 503 kts 143°
2026-05-06 21:40 41.35115 20.86551 39097 ft 502 kts 143°
2026-05-06 21:40 41.29651 20.92258 39114 ft 502 kts 143°
2026-05-06 21:41 41.24156 20.97983 39141 ft 503 kts 143°
2026-05-06 21:41 41.18661 21.03697 39138 ft 502 kts 143°
2026-05-06 21:42 41.13178 21.09386 39123 ft 501 kts 143°
2026-05-06 21:42 41.07690 21.15066 39122 ft 503 kts 143°
2026-05-06 21:43 41.02189 21.20749 39123 ft 503 kts 143°
2026-05-06 21:43 40.96667 21.26441 39139 ft 502 kts 143°
2026-05-06 21:44 40.91185 21.32079 39140 ft 502 kts 143°
2026-05-06 21:44 40.85630 21.37713 39124 ft 503 kts 145°
2026-05-06 21:45 40.82755 21.40388 38989 ft 504 kts 146°
2026-05-06 21:45 40.79895 21.43026 39206 ft 505 kts 146°
2026-05-06 21:45 40.74144 21.48338 39118 ft 504 kts 146°
2026-05-06 21:46 40.68404 21.53644 39125 ft 504 kts 145°
2026-05-06 21:46 40.62677 21.58937 39121 ft 504 kts 146°
2026-05-06 21:47 40.56924 21.64246 39115 ft 506 kts 145°
2026-05-06 21:47 40.54054 21.66891 38969 ft 505 kts 146°
2026-05-06 21:47 40.51276 21.69450 39143 ft 504 kts 146°
2026-05-06 21:48 40.45501 21.74761 39106 ft 507 kts 146°
2026-05-06 21:48 40.39720 21.80067 39106 ft 507 kts 146°
2026-05-06 21:49 40.33949 21.85355 39095 ft 507 kts 146°
2026-05-06 21:49 40.28190 21.90619 39086 ft 507 kts 146°
2026-05-06 21:50 40.22393 21.95906 39087 ft 508 kts 146°
2026-05-06 21:50 40.16608 22.01172 39087 ft 508 kts 146°
2026-05-06 21:51 40.10800 22.06448 39097 ft 509 kts 146°
2026-05-06 21:51 40.05032 22.11676 39095 ft 508 kts 146°
2026-05-06 21:52 39.99213 22.16939 39096 ft 507 kts 146°
2026-05-06 21:52 39.93431 22.22158 39084 ft 508 kts 146°
2026-05-06 21:53 39.87637 22.27377 39082 ft 507 kts 146°
2026-05-06 21:53 39.81810 22.32614 39078 ft 508 kts 146°
2026-05-06 21:54 39.75986 22.37838 39073 ft 508 kts 146°
2026-05-06 21:54 39.70198 22.43020 39073 ft 507 kts 146°
2026-05-06 21:55 39.64410 22.48190 39068 ft 507 kts 146°
2026-05-06 21:55 39.58594 22.53374 39075 ft 507 kts 146°
2026-05-06 21:56 39.52761 22.58562 39065 ft 506 kts 146°
2026-05-06 21:56 39.47005 22.63672 39065 ft 507 kts 146°
2026-05-06 21:57 39.41188 22.68825 39063 ft 506 kts 147°
2026-05-06 21:57 39.35355 22.73982 39055 ft 505 kts 147°
2026-05-06 21:58 39.29556 22.79098 39054 ft 506 kts 147°
2026-05-06 21:58 39.23789 22.84175 39055 ft 506 kts 147°
2026-05-06 21:59 39.17980 22.89280 39054 ft 506 kts 147°
2026-05-06 21:59 39.12163 22.94381 39051 ft 504 kts 147°
2026-05-06 22:00 39.06385 22.99437 39065 ft 504 kts 147°
2026-05-06 22:00 39.00578 23.04508 39067 ft 505 kts 147°
2026-05-06 22:01 38.94765 23.09574 39064 ft 505 kts 147°
2026-05-06 22:01 38.88969 23.14616 39052 ft 504 kts 147°
2026-05-06 22:02 38.83133 23.19682 39056 ft 505 kts 147°
2026-05-06 22:02 38.77344 23.24697 39043 ft 504 kts 147°
2026-05-06 22:03 38.71534 23.29721 39047 ft 503 kts 147°
2026-05-06 22:03 38.65715 23.34741 39063 ft 504 kts 147°
2026-05-06 22:04 38.59937 23.39718 39053 ft 504 kts 147°
2026-05-06 22:04 38.54125 23.44713 39064 ft 503 kts 147°
2026-05-06 22:05 38.48323 23.49690 39059 ft 502 kts 147°
2026-05-06 22:05 38.42538 23.54642 39067 ft 504 kts 147°
2026-05-06 22:06 38.36713 23.59618 39081 ft 503 kts 147°
2026-05-06 22:06 38.30930 23.64550 39078 ft 503 kts 147°
2026-05-06 22:07 38.25095 23.69516 39079 ft 503 kts 147°
2026-05-06 22:07 38.19299 23.74439 39074 ft 502 kts 147°
2026-05-06 22:08 38.13503 23.79430 39072 ft 503 kts 146°
2026-05-06 22:08 38.07747 23.84511 39078 ft 502 kts 146°
2026-05-06 22:09 38.02045 23.89529 39085 ft 502 kts 146°
2026-05-06 22:09 37.96302 23.94569 39090 ft 502 kts 146°
2026-05-06 22:10 37.90563 23.99591 39090 ft 503 kts 146°
2026-05-06 22:10 37.84801 24.04623 39081 ft 503 kts 146°
2026-05-06 22:11 37.79075 24.09614 39083 ft 501 kts 146°
2026-05-06 22:11 37.73342 24.14600 39078 ft 501 kts 146°
2026-05-06 22:12 37.67574 24.19608 39078 ft 501 kts 146°
2026-05-06 22:12 37.61869 24.24550 39074 ft 502 kts 146°
2026-05-06 22:13 37.56106 24.29533 39075 ft 503 kts 146°
2026-05-06 22:13 37.50243 24.34265 39074 ft 500 kts 149°
2026-05-06 22:14 37.44323 24.38879 39076 ft 501 kts 149°
2026-05-06 22:14 37.38408 24.43498 39079 ft 501 kts 149°
2026-05-06 22:15 37.32514 24.48101 39073 ft 500 kts 149°
2026-05-06 22:15 37.26605 24.52713 39078 ft 500 kts 149°
2026-05-06 22:16 37.20718 24.57303 38990 ft 502 kts 149°
2026-05-06 22:16 37.14797 24.61911 39087 ft 501 kts 149°
2026-05-06 22:17 37.08879 24.66509 39073 ft 500 kts 149°
2026-05-06 22:17 37.02945 24.71112 39078 ft 498 kts 149°
2026-05-06 22:18 36.97086 24.75648 39076 ft 499 kts 149°
2026-05-06 22:18 36.91164 24.80226 39073 ft 500 kts 149°
2026-05-06 22:19 36.85267 24.84791 39072 ft 500 kts 149°
2026-05-06 22:19 36.79378 24.89344 39072 ft 498 kts 149°
2026-05-06 22:20 36.73472 24.93900 39062 ft 497 kts 149°
2026-05-06 22:20 36.67595 24.98422 39078 ft 498 kts 149°
2026-05-06 22:21 36.61676 25.02961 39081 ft 500 kts 149°
2026-05-06 22:21 36.55771 25.07480 39080 ft 500 kts 149°
2026-05-06 22:22 36.49872 25.11988 39077 ft 499 kts 149°
2026-05-06 22:22 36.43942 25.16510 39082 ft 500 kts 149°
2026-05-06 22:23 36.38011 25.21025 39089 ft 500 kts 149°
2026-05-06 22:23 36.32094 25.25521 39098 ft 501 kts 149°
2026-05-06 22:24 36.26170 25.30015 39097 ft 500 kts 149°
2026-05-06 22:24 36.20212 25.34526 39095 ft 500 kts 149°
2026-05-06 22:25 36.14294 25.38999 39100 ft 500 kts 149°
2026-05-06 22:25 36.08364 25.43474 39100 ft 501 kts 149°
2026-05-06 22:26 36.02390 25.47976 39101 ft 501 kts 149°
2026-05-06 22:26 35.96446 25.52447 39098 ft 501 kts 149°
2026-05-06 22:27 35.90494 25.56917 39106 ft 500 kts 149°
2026-05-06 22:27 35.84573 25.61355 39100 ft 500 kts 149°
2026-05-06 22:28 35.78635 25.65799 39096 ft 500 kts 150°
2026-05-06 22:28 35.72679 25.70247 39092 ft 500 kts 150°
2026-05-06 22:29 35.66732 25.74682 39094 ft 500 kts 150°
2026-05-06 22:29 35.60802 25.79095 39093 ft 500 kts 150°
2026-05-06 22:30 35.54844 25.83522 39096 ft 500 kts 150°
2026-05-06 22:30 35.48891 25.87938 39096 ft 500 kts 150°
2026-05-06 22:31 35.42954 25.92333 39094 ft 500 kts 150°
2026-05-06 22:31 35.37038 25.96705 39095 ft 499 kts 150°
2026-05-06 22:32 35.31068 26.01110 39097 ft 500 kts 150°
2026-05-06 22:32 35.25116 26.05495 39096 ft 499 kts 150°
2026-05-06 22:33 35.19173 26.09864 39093 ft 500 kts 150°
2026-05-06 22:33 35.13240 26.14218 39099 ft 500 kts 150°
2026-05-06 22:34 35.07312 26.18629 39095 ft 498 kts 146°
2026-05-06 22:34 35.01933 26.23989 39097 ft 500 kts 140°
2026-05-06 22:35 34.96670 26.29482 39099 ft 501 kts 140°
2026-05-06 22:35 34.91370 26.34999 39101 ft 502 kts 140°
2026-05-06 22:36 34.86046 26.40527 39098 ft 501 kts 140°
2026-05-06 22:36 34.80746 26.46018 39091 ft 502 kts 140°
2026-05-06 22:37 34.75423 26.51521 39102 ft 503 kts 140°
2026-05-06 22:37 34.70108 26.57006 39097 ft 502 kts 140°
2026-05-06 22:38 34.64801 26.62473 39102 ft 501 kts 140°
2026-05-06 22:38 34.59498 26.67926 39094 ft 500 kts 141°
2026-05-06 22:39 34.54184 26.73381 39097 ft 502 kts 141°
2026-05-06 22:39 34.48859 26.78837 39098 ft 502 kts 141°
2026-05-06 22:40 34.43534 26.84284 39097 ft 501 kts 141°
2026-05-06 22:40 34.38178 26.89753 39096 ft 501 kts 141°
2026-05-06 22:41 34.30201 26.97881 39097 ft 502 kts 141°
2026-05-06 22:42 34.24887 27.03284 39097 ft 501 kts 141°
2026-05-06 22:42 34.19542 27.08709 39099 ft 502 kts 141°
2026-05-06 22:43 34.14179 27.14143 39097 ft 502 kts 141°
2026-05-06 22:43 34.08837 27.19547 39091 ft 501 kts 141°
2026-05-06 22:44 34.03492 27.24945 39096 ft 501 kts 141°
2026-05-06 22:44 33.98154 27.30325 39100 ft 501 kts 141°
2026-05-06 22:45 33.92644 27.35375 39099 ft 499 kts 147°
2026-05-06 22:45 33.86854 27.40046 39097 ft 500 kts 148°
2026-05-06 22:46 33.81059 27.44706 39095 ft 500 kts 148°
2026-05-06 22:46 33.76227 27.48587 39097 ft 501 kts 148°
2026-05-06 22:47 33.69506 27.53978 39093 ft 500 kts 147°
2026-05-06 22:47 33.63686 27.58638 39100 ft 501 kts 147°
2026-05-06 22:48 33.57933 27.63238 39095 ft 500 kts 148°
2026-05-06 22:48 33.52104 27.67891 39091 ft 500 kts 148°
2026-05-06 22:49 33.46329 27.72493 39088 ft 500 kts 148°
2026-05-06 22:49 33.40532 27.77105 39093 ft 501 kts 148°
2026-05-06 22:50 33.34726 27.81717 39094 ft 502 kts 148°
2026-05-06 22:50 33.28926 27.86317 39090 ft 502 kts 148°
2026-05-06 22:51 33.23107 27.90923 39095 ft 503 kts 148°
2026-05-06 22:51 33.17258 27.95547 39092 ft 501 kts 148°
2026-05-06 22:52 33.11476 28.00111 39094 ft 501 kts 148°
2026-05-06 22:52 33.05639 28.04710 39095 ft 502 kts 148°
2026-05-06 22:53 32.99844 28.09268 39097 ft 502 kts 148°
2026-05-06 22:53 32.94028 28.13836 39100 ft 502 kts 148°
2026-05-06 22:54 32.88184 28.18419 39092 ft 502 kts 148°
2026-05-06 22:54 32.82325 28.23006 39093 ft 502 kts 148°
2026-05-06 22:55 32.76505 28.27555 39096 ft 501 kts 148°
2026-05-06 22:55 32.70697 28.32087 39095 ft 502 kts 148°
2026-05-06 22:56 32.64840 28.36651 39094 ft 502 kts 148°
2026-05-06 22:56 32.59026 28.41174 39095 ft 502 kts 148°
2026-05-06 22:57 32.53194 28.45703 39095 ft 502 kts 148°
2026-05-06 22:57 32.47339 28.50244 39093 ft 501 kts 148°
2026-05-06 22:58 32.41509 28.54758 39096 ft 502 kts 148°
2026-05-06 22:58 32.35681 28.59263 39098 ft 501 kts 148°
2026-05-06 22:59 32.29863 28.63754 39094 ft 501 kts 148°
2026-05-06 22:59 32.24036 28.68244 39095 ft 501 kts 149°
2026-05-06 23:00 32.18182 28.72748 39088 ft 501 kts 149°
2026-05-06 23:00 32.12341 28.77235 39093 ft 501 kts 149°
2026-05-06 23:01 32.06474 28.81735 39093 ft 502 kts 149°
2026-05-06 23:01 32.00639 28.86205 39088 ft 501 kts 149°
2026-05-06 23:02 31.94811 28.90661 39096 ft 499 kts 149°
2026-05-06 23:02 31.89005 28.95094 39085 ft 500 kts 149°
2026-05-06 23:03 31.83135 28.99569 39090 ft 502 kts 149°
2026-05-06 23:03 31.77218 29.03954 39100 ft 499 kts 155°
2026-05-06 23:04 31.70777 29.06623 39088 ft 493 kts 173°
2026-05-06 23:04 31.66221 29.07141 39089 ft 488 kts 181°
2026-05-06 23:05 31.57224 29.07360 39093 ft 486 kts 182°
2026-05-06 23:05 31.50445 29.07483 39092 ft 487 kts 182°
2026-05-06 23:06 31.43642 29.07593 39084 ft 487 kts 182°
2026-05-06 23:06 31.36861 29.07696 39088 ft 488 kts 182°
2026-05-06 23:07 31.30118 29.07795 39092 ft 488 kts 182°
2026-05-06 23:07 31.23302 29.07893 39103 ft 486 kts 182°
2026-05-06 23:08 31.16552 29.07989 39091 ft 486 kts 182°
2026-05-06 23:08 31.09805 29.08087 39092 ft 486 kts 182°
2026-05-06 23:09 31.02994 29.08185 39093 ft 487 kts 182°
2026-05-06 23:09 30.96235 29.08283 39097 ft 487 kts 182°
2026-05-06 23:10 30.89467 29.08380 39093 ft 487 kts 182°
2026-05-06 23:10 30.82807 29.08476 39094 ft 487 kts 182°
2026-05-06 23:11 30.77161 29.08556 39089 ft 487 kts 182°
2026-05-06 23:11 30.69220 29.08669 39087 ft 487 kts 182°
2026-05-06 23:12 30.62450 29.08766 39088 ft 488 kts 182°
2026-05-06 23:12 30.55686 29.09191 39088 ft 492 kts 172°
2026-05-06 23:13 30.49172 29.11744 39090 ft 498 kts 154°
2026-05-06 23:13 30.43582 29.16460 39086 ft 504 kts 136°
2026-05-06 23:14 30.38714 29.22324 39097 ft 505 kts 135°
2026-05-06 23:14 30.33852 29.28198 39094 ft 505 kts 135°
2026-05-06 23:15 30.28987 29.34045 39088 ft 504 kts 135°
2026-05-06 23:15 30.24110 29.39886 39090 ft 505 kts 135°
2026-05-06 23:16 30.19268 29.45671 39088 ft 504 kts 135°
2026-05-06 23:16 30.14370 29.51508 39095 ft 505 kts 135°
2026-05-06 23:17 30.09505 29.57296 39084 ft 503 kts 135°
2026-05-06 23:17 30.04610 29.63109 39091 ft 505 kts 135°
2026-05-06 23:18 29.99717 29.68911 39093 ft 505 kts 136°
2026-05-06 23:18 29.94932 29.74576 39087 ft 505 kts 136°
2026-05-06 23:19 29.90029 29.80372 39087 ft 503 kts 136°
2026-05-06 23:19 29.85265 29.85994 39088 ft 504 kts 136°
2026-05-06 23:20 29.80365 29.91769 39086 ft 504 kts 136°
2026-05-06 23:20 29.75436 29.97569 39083 ft 506 kts 136°
2026-05-06 23:21 29.70536 30.03326 39080 ft 505 kts 136°
2026-05-06 23:21 29.65600 30.09117 39088 ft 506 kts 137°
2026-05-06 23:22 29.60669 30.14894 39086 ft 507 kts 137°
2026-05-06 23:22 29.55732 30.20669 39080 ft 506 kts 137°
2026-05-06 23:23 29.50834 30.26390 39088 ft 506 kts 137°
2026-05-06 23:23 29.45874 30.32175 39081 ft 506 kts 137°
2026-05-06 23:24 29.40945 30.37916 39075 ft 507 kts 137°
2026-05-06 23:24 29.36033 30.43718 39080 ft 506 kts 136°
2026-05-06 23:25 29.31148 30.49563 39062 ft 507 kts 137°
2026-05-06 23:25 29.26291 30.55361 39066 ft 506 kts 137°
2026-05-06 23:26 29.21415 30.61170 39052 ft 507 kts 137°
2026-05-06 23:26 29.16514 30.66997 39055 ft 506 kts 137°
2026-05-06 23:27 29.11634 30.72791 39052 ft 505 kts 138°
2026-05-06 23:27 29.06781 30.78542 39042 ft 505 kts 138°
2026-05-06 23:28 29.01904 30.84314 39047 ft 506 kts 138°
2026-05-06 23:28 28.97008 30.90100 39035 ft 506 kts 138°
2026-05-06 23:29 28.92136 30.95850 39029 ft 503 kts 138°
2026-05-06 23:29 28.87240 31.01618 39036 ft 505 kts 138°
2026-05-06 23:30 28.82363 31.07357 39044 ft 504 kts 138°
2026-05-06 23:30 28.77469 31.13106 39037 ft 505 kts 139°
2026-05-06 23:31 28.72619 31.18796 39034 ft 505 kts 139°
2026-05-06 23:31 28.67772 31.24580 39043 ft 506 kts 136°
2026-05-06 23:32 28.63084 31.30525 39023 ft 506 kts 136°
2026-05-06 23:32 28.58355 31.36506 39037 ft 506 kts 136°
2026-05-06 23:33 28.53643 31.42442 39031 ft 508 kts 136°
2026-05-06 23:33 28.48918 31.48381 39039 ft 508 kts 137°
2026-05-06 23:34 28.44202 31.54297 39047 ft 506 kts 137°
2026-05-06 23:34 28.39469 31.60222 39038 ft 507 kts 137°
2026-05-06 23:35 28.34745 31.66126 39030 ft 506 kts 137°
2026-05-06 23:35 28.29990 31.72060 39013 ft 507 kts 137°
2026-05-06 23:36 28.25262 31.77951 39019 ft 507 kts 137°
2026-05-06 23:36 28.20497 31.83881 39018 ft 507 kts 138°
2026-05-06 23:37 28.15757 31.89770 39011 ft 507 kts 137°
2026-05-06 23:37 28.11027 31.95639 39010 ft 507 kts 138°
2026-05-06 23:38 28.06274 32.01528 39014 ft 503 kts 138°
2026-05-06 23:38 28.02021 32.07898 39017 ft 515 kts 125°
2026-05-06 23:39 27.98578 32.15004 39018 ft 517 kts 123°
2026-05-06 23:39 27.95146 32.22149 39038 ft 519 kts 123°
2026-05-06 23:40 27.91716 32.29269 39036 ft 517 kts 123°
2026-05-06 23:40 27.88249 32.36446 39039 ft 519 kts 123°
2026-05-06 23:41 27.84786 32.43601 39037 ft 518 kts 123°
2026-05-06 23:41 27.81337 32.50715 39024 ft 516 kts 123°
2026-05-06 23:42 27.77885 32.57818 39025 ft 517 kts 123°
2026-05-06 23:42 27.74425 32.64926 39023 ft 518 kts 123°
2026-05-06 23:43 27.70976 32.72002 39008 ft 516 kts 124°
2026-05-06 23:43 27.67512 32.79093 39012 ft 516 kts 124°
2026-05-06 23:44 27.64029 32.86213 39005 ft 515 kts 124°
2026-05-06 23:44 27.60559 32.93295 39009 ft 517 kts 124°
2026-05-06 23:45 27.57120 33.00301 39009 ft 514 kts 124°
2026-05-06 23:45 27.53652 33.07353 39013 ft 515 kts 124°
2026-05-06 23:46 27.50182 33.14400 38996 ft 514 kts 124°
2026-05-06 23:46 27.46709 33.21440 38985 ft 514 kts 124°
2026-05-06 23:47 27.43252 33.28436 38973 ft 514 kts 124°
2026-05-06 23:47 27.39777 33.35457 38973 ft 514 kts 124°
2026-05-06 23:48 27.36306 33.42458 38974 ft 514 kts 125°
2026-05-06 23:48 27.32830 33.49457 38968 ft 514 kts 125°
2026-05-06 23:49 27.29330 33.56493 38957 ft 513 kts 125°
2026-05-06 23:49 27.25864 33.63448 38962 ft 513 kts 125°
2026-05-06 23:50 27.22373 33.70444 38947 ft 513 kts 126°
2026-05-06 23:50 27.17290 33.81028 38949 ft 519 kts 119°
2026-05-06 23:51 27.14594 33.88547 38943 ft 521 kts 118°
2026-05-06 23:51 27.11927 33.96073 38935 ft 521 kts 118°
2026-05-06 23:52 27.09240 34.03630 38935 ft 519 kts 118°
2026-05-06 23:52 27.06562 34.11139 38923 ft 520 kts 118°
2026-05-06 23:53 27.03880 34.18642 38926 ft 522 kts 118°
2026-05-06 23:53 27.01173 34.26199 38917 ft 520 kts 119°
2026-05-06 23:54 26.98485 34.33685 38909 ft 521 kts 118°
2026-05-06 23:54 26.95768 34.41239 38902 ft 521 kts 118°
2026-05-06 23:55 26.93057 34.48758 38900 ft 523 kts 118°
2026-05-06 23:55 26.90342 34.56277 38905 ft 524 kts 119°
2026-05-06 23:56 26.87590 34.63882 38914 ft 523 kts 118°
2026-05-06 23:56 26.84892 34.71324 38892 ft 524 kts 119°
2026-05-06 23:57 26.82156 34.78857 38894 ft 524 kts 119°
2026-05-06 23:57 26.79414 34.86392 38898 ft 522 kts 119°
2026-05-06 23:58 26.76672 34.93908 38899 ft 525 kts 120°
2026-05-06 23:58 26.73918 35.01448 38894 ft 523 kts 120°
2026-05-06 23:59 26.71174 35.08941 38898 ft 523 kts 120°
2026-05-06 23:59 26.68409 35.16482 38911 ft 523 kts 120°
2026-05-07 00:00 26.65666 35.23944 38917 ft 523 kts 120°
2026-05-07 00:00 26.63350 35.30234 38909 ft 523 kts 120°
2026-05-07 00:01 26.60123 35.38986 38907 ft 522 kts 120°
2026-05-07 00:01 26.57355 35.46470 38903 ft 525 kts 120°
2026-05-07 00:02 26.54539 35.53957 38906 ft 523 kts 120°
2026-05-07 00:02 26.51681 35.61431 38906 ft 523 kts 120°
2026-05-07 00:03 26.48830 35.68880 38891 ft 522 kts 121°
2026-05-07 00:03 26.45963 35.76357 38890 ft 523 kts 121°
2026-05-07 00:04 26.43127 35.83748 38890 ft 520 kts 121°
2026-05-07 00:04 26.40274 35.91166 38892 ft 519 kts 121°
2026-05-07 00:05 26.37426 35.98560 38890 ft 520 kts 121°
2026-05-07 00:05 26.34561 36.05981 38888 ft 523 kts 121°
2026-05-07 00:06 26.31708 36.13364 38889 ft 520 kts 121°
2026-05-07 00:06 26.28860 36.20719 38892 ft 520 kts 121°
2026-05-07 00:07 26.25981 36.28137 38889 ft 522 kts 121°
2026-05-07 00:07 26.23108 36.35532 38882 ft 520 kts 121°
2026-05-07 00:08 26.20239 36.42901 38879 ft 519 kts 121°
2026-05-07 00:08 26.17250 36.50192 38889 ft 515 kts 126°
2026-05-07 00:09 26.13816 36.57208 38883 ft 515 kts 127°
2026-05-07 00:09 26.10371 36.64189 38885 ft 517 kts 126°
2026-05-07 00:10 26.06928 36.71162 38870 ft 517 kts 127°
2026-05-07 00:10 26.03461 36.78175 38871 ft 517 kts 127°
2026-05-07 00:11 25.99989 36.85189 38865 ft 517 kts 127°
2026-05-07 00:11 25.96538 36.92151 38866 ft 516 kts 127°
2026-05-07 00:12 25.93074 36.99126 38867 ft 516 kts 127°
2026-05-07 00:12 25.89602 37.06107 38876 ft 516 kts 127°
2026-05-07 00:13 25.86113 37.13114 38890 ft 516 kts 127°
2026-05-07 00:13 25.82647 37.20064 38893 ft 515 kts 127°
2026-05-07 00:14 25.79175 37.27018 38902 ft 516 kts 127°
2026-05-07 00:14 25.75724 37.33960 38904 ft 515 kts 127°
2026-05-07 00:15 25.72264 37.40907 38916 ft 516 kts 126°
2026-05-07 00:15 25.68782 37.47887 38927 ft 515 kts 126°
2026-05-07 00:16 25.65316 37.54823 38941 ft 515 kts 126°
2026-05-07 00:16 25.61834 37.61780 38945 ft 517 kts 127°
2026-05-07 00:17 25.58345 37.68742 38931 ft 516 kts 127°
2026-05-07 00:17 25.54854 37.75696 38933 ft 516 kts 127°
2026-05-07 00:18 25.51363 37.82635 38929 ft 518 kts 127°
2026-05-07 00:18 25.47852 37.89610 38943 ft 519 kts 127°
2026-05-07 00:19 25.44339 37.96575 38948 ft 519 kts 127°
2026-05-07 00:19 25.40825 38.03533 38956 ft 520 kts 127°
2026-05-07 00:20 25.37296 38.10509 38957 ft 521 kts 127°
2026-05-07 00:20 25.33765 38.17480 38955 ft 520 kts 127°
2026-05-07 00:21 25.30227 38.24451 38958 ft 523 kts 127°
2026-05-07 00:21 25.26701 38.31392 38949 ft 522 kts 127°
2026-05-07 00:22 25.23158 38.38353 38954 ft 523 kts 127°
2026-05-07 00:22 25.19589 38.45356 38962 ft 523 kts 127°
2026-05-07 00:23 25.16024 38.52338 38955 ft 522 kts 127°
2026-05-07 00:23 25.12434 38.59349 38967 ft 525 kts 127°
2026-05-07 00:24 25.08844 38.66350 38982 ft 525 kts 128°
2026-05-07 00:24 25.05260 38.73330 38999 ft 524 kts 128°
2026-05-07 00:25 25.01654 38.80339 39020 ft 526 kts 128°
2026-05-07 00:25 24.98041 38.87353 38989 ft 526 kts 128°
2026-05-07 00:26 24.94437 38.94340 38953 ft 524 kts 128°
2026-05-07 00:26 24.90832 39.01306 38928 ft 526 kts 128°
2026-05-07 00:27 24.87195 39.08325 38948 ft 527 kts 128°
2026-05-07 00:27 24.83550 39.15351 38958 ft 528 kts 128°
2026-05-07 00:28 24.79897 39.22380 38968 ft 529 kts 128°
2026-05-07 00:28 24.76255 39.29386 38985 ft 528 kts 128°
2026-05-07 00:29 24.72600 39.36403 39015 ft 528 kts 128°
2026-05-07 00:30 24.65283 39.50418 39039 ft 529 kts 128°
2026-05-07 00:30 24.61609 39.57441 39028 ft 528 kts 128°
2026-05-07 00:31 24.57950 39.64424 39013 ft 529 kts 128°
2026-05-07 00:31 24.54962 39.71923 38989 ft 549 kts 112°
2026-05-07 00:32 24.53726 39.80304 38981 ft 560 kts 101°
2026-05-07 00:32 24.52942 39.88810 38999 ft 561 kts 101°
2026-05-07 00:33 24.52144 39.97324 39014 ft 560 kts 102°
2026-05-07 00:33 24.51332 40.05808 39021 ft 562 kts 102°
2026-05-07 00:34 24.50513 40.14261 39029 ft 561 kts 101°
2026-05-07 00:34 24.49687 40.22718 39039 ft 558 kts 102°
2026-05-07 00:35 24.48854 40.31158 39031 ft 559 kts 102°
2026-05-07 00:35 24.48014 40.39618 39025 ft 556 kts 101°
2026-05-07 00:36 24.47170 40.48059 39021 ft 559 kts 102°
2026-05-07 00:36 24.46320 40.56517 39021 ft 558 kts 101°
2026-05-07 00:37 24.45467 40.64946 39014 ft 558 kts 101°
2026-05-07 00:37 24.44606 40.73406 39002 ft 557 kts 102°
2026-05-07 00:38 24.43745 40.81822 39007 ft 556 kts 102°
2026-05-07 00:38 24.42877 40.90259 39014 ft 554 kts 102°
2026-05-07 00:39 24.42010 40.98641 39019 ft 556 kts 102°
2026-05-07 00:39 24.41137 41.07034 39027 ft 556 kts 102°
2026-05-07 00:40 24.40262 41.15402 39031 ft 557 kts 102°
2026-05-07 00:40 24.39379 41.23814 39040 ft 554 kts 102°
2026-05-07 00:41 24.38494 41.32183 39051 ft 555 kts 102°
2026-05-07 00:41 24.37603 41.40575 39055 ft 553 kts 102°
2026-05-07 00:42 24.36711 41.48926 39066 ft 552 kts 102°
2026-05-07 00:42 24.35812 41.57292 39062 ft 552 kts 102°
2026-05-07 00:43 24.34911 41.65640 39064 ft 552 kts 102°
2026-05-07 00:43 24.34023 41.73835 39045 ft 551 kts 102°
2026-05-07 00:44 24.33036 41.82103 39045 ft 546 kts 108°
2026-05-07 00:44 24.31094 41.90049 39044 ft 539 kts 112°
2026-05-07 00:45 24.29012 41.97963 39046 ft 541 kts 112°
2026-05-07 00:45 24.26928 42.05869 39048 ft 542 kts 112°
2026-05-07 00:46 24.24843 42.13768 39046 ft 541 kts 112°
2026-05-07 00:46 24.22761 42.21638 39047 ft 538 kts 112°
2026-05-07 00:47 24.20674 42.29503 39055 ft 541 kts 112°
2026-05-07 00:47 24.18581 42.37378 39065 ft 540 kts 112°
2026-05-07 00:48 24.16475 42.45284 39063 ft 539 kts 112°
2026-05-07 00:48 24.14380 42.53129 39062 ft 541 kts 112°
2026-05-07 00:49 24.12272 42.61008 39064 ft 540 kts 112°
2026-05-07 00:49 24.10161 42.68879 39048 ft 540 kts 112°
2026-05-07 00:50 24.08099 42.76553 39051 ft 540 kts 112°
2026-05-07 00:50 24.06028 42.84242 39059 ft 536 kts 112°
2026-05-07 00:51 24.03917 42.92057 39058 ft 539 kts 112°
2026-05-07 00:51 24.01785 42.99934 39054 ft 539 kts 112°
2026-05-07 00:52 23.99662 43.07761 39049 ft 538 kts 112°
2026-05-07 00:52 23.97537 43.15579 39049 ft 538 kts 112°
2026-05-07 00:53 23.95410 43.23386 39049 ft 538 kts 112°
2026-05-07 00:53 23.93271 43.31218 39050 ft 539 kts 112°
2026-05-07 00:54 23.91141 43.39006 39061 ft 537 kts 112°
2026-05-07 00:54 23.88991 43.46842 39076 ft 538 kts 112°
2026-05-07 00:55 23.86837 43.54682 39079 ft 537 kts 112°
2026-05-07 00:55 23.85034 43.61229 39073 ft 537 kts 112°
2026-05-07 00:56 23.82523 43.70329 39057 ft 537 kts 112°
2026-05-07 00:56 23.80423 43.77920 39051 ft 537 kts 112°
2026-05-07 00:57 23.78255 43.85745 39053 ft 536 kts 111°
2026-05-07 00:57 23.77002 43.93815 39055 ft 545 kts 98°
2026-05-07 00:58 23.76399 44.02008 39051 ft 543 kts 98°
2026-05-07 00:58 23.75793 44.10255 39058 ft 545 kts 98°
2026-05-07 00:59 23.74875 44.22560 39066 ft 543 kts 98°
2026-05-07 01:00 23.74258 44.30721 39073 ft 542 kts 98°
2026-05-07 01:00 23.73637 44.38865 39079 ft 541 kts 98°
2026-05-07 01:01 23.73009 44.47042 39085 ft 541 kts 98°
2026-05-07 01:01 23.72380 44.55175 39091 ft 539 kts 98°
2026-05-07 01:02 23.71748 44.63279 39093 ft 540 kts 98°
2026-05-07 01:02 23.71110 44.71418 39074 ft 535 kts 98°
2026-05-07 01:03 23.70469 44.79532 39071 ft 536 kts 99°
2026-05-07 01:03 23.69825 44.87622 39068 ft 532 kts 99°
2026-05-07 01:04 23.69182 44.95642 39063 ft 534 kts 98°
2026-05-07 01:04 23.68535 45.03667 39062 ft 533 kts 99°
2026-05-07 01:05 23.67882 45.11711 39061 ft 533 kts 98°
2026-05-07 01:05 23.67229 45.19706 39061 ft 532 kts 99°
2026-05-07 01:06 23.66569 45.27742 39058 ft 531 kts 99°
2026-05-07 01:06 23.65906 45.35753 39051 ft 530 kts 98°
2026-05-07 01:07 23.65241 45.43738 39042 ft 531 kts 98°
2026-05-07 01:07 23.64572 45.51724 39038 ft 530 kts 98°
2026-05-07 01:08 23.63900 45.59702 39025 ft 529 kts 98°
2026-05-07 01:08 23.63222 45.67693 39006 ft 530 kts 99°
2026-05-07 01:09 23.62543 45.75641 38998 ft 529 kts 99°
2026-05-07 01:09 23.61858 45.83606 38995 ft 529 kts 99°
2026-05-07 01:10 23.61170 45.91569 38992 ft 528 kts 99°
2026-05-07 01:10 23.60479 45.99515 38987 ft 529 kts 99°
2026-05-07 01:11 23.59784 46.07460 38992 ft 527 kts 99°
2026-05-07 01:11 23.59085 46.15400 39009 ft 527 kts 98°
2026-05-07 01:12 23.58382 46.23341 39031 ft 525 kts 99°
2026-05-07 01:12 23.57678 46.31250 39048 ft 527 kts 99°
2026-05-07 01:13 23.56970 46.39151 39066 ft 527 kts 99°
2026-05-07 01:13 23.56254 46.47095 39082 ft 527 kts 99°
2026-05-07 01:14 23.55535 46.55039 39090 ft 526 kts 99°
2026-05-07 01:14 23.54812 46.62967 39071 ft 527 kts 98°
2026-05-07 01:15 23.54087 46.70883 39035 ft 527 kts 99°
2026-05-07 01:15 23.53355 46.78827 39010 ft 527 kts 99°
2026-05-07 01:16 23.52617 46.86780 38998 ft 528 kts 99°
2026-05-07 01:16 23.51880 46.94692 38986 ft 527 kts 99°
2026-05-07 01:17 23.51136 47.02634 38973 ft 527 kts 99°
2026-05-07 01:17 23.50389 47.10560 38968 ft 526 kts 99°
2026-05-07 01:18 23.49643 47.18431 38968 ft 526 kts 99°
2026-05-07 01:18 23.48892 47.26318 38965 ft 524 kts 99°
2026-05-07 01:19 23.48136 47.34209 38967 ft 524 kts 99°
2026-05-07 01:19 23.47379 47.42077 38964 ft 524 kts 99°
2026-05-07 01:20 23.46612 47.49993 38964 ft 524 kts 99°
2026-05-07 01:20 23.45848 47.57849 38956 ft 524 kts 99°
2026-05-07 01:21 23.45080 47.65710 38953 ft 524 kts 99°
2026-05-07 01:21 23.44307 47.73574 38937 ft 524 kts 99°
2026-05-07 01:22 23.43530 47.81441 38931 ft 522 kts 99°
2026-05-07 01:22 23.42749 47.89298 38921 ft 522 kts 99°
2026-05-07 01:23 23.41967 47.97139 38910 ft 521 kts 99°
2026-05-07 01:23 23.41185 48.04926 38908 ft 522 kts 99°
2026-05-07 01:24 23.40395 48.12770 38911 ft 520 kts 99°
2026-05-07 01:24 23.39602 48.20587 38905 ft 519 kts 99°
2026-05-07 01:25 23.38803 48.28343 38910 ft 520 kts 101°
2026-05-07 01:25 23.36828 48.35788 38914 ft 510 kts 119°
2026-05-07 01:26 23.33306 48.42385 38918 ft 504 kts 126°
2026-05-07 01:26 23.29571 48.48823 38908 ft 504 kts 126°
2026-05-07 01:27 23.25835 48.55224 38908 ft 503 kts 126°
2026-05-07 01:27 23.22086 48.61624 38897 ft 501 kts 126°
2026-05-07 01:28 23.18335 48.68014 38883 ft 500 kts 127°
2026-05-07 01:28 23.14568 48.74418 38876 ft 501 kts 127°
2026-05-07 01:29 23.10810 48.80796 38875 ft 500 kts 127°
2026-05-07 01:29 23.07067 48.87139 38869 ft 500 kts 127°
2026-05-07 01:30 23.03335 48.93457 38868 ft 499 kts 126°
2026-05-07 01:30 22.99567 48.99825 38872 ft 499 kts 127°
2026-05-07 01:31 22.95820 49.06152 38871 ft 500 kts 126°
2026-05-07 01:31 22.92069 49.12476 38873 ft 500 kts 127°
2026-05-07 01:32 22.88308 49.18809 38867 ft 500 kts 126°
2026-05-07 01:32 22.84538 49.25151 38856 ft 499 kts 127°
2026-05-07 01:33 22.80788 49.31450 38853 ft 498 kts 126°
2026-05-07 01:33 22.77035 49.37748 38853 ft 498 kts 126°
2026-05-07 01:34 22.73293 49.44019 38850 ft 496 kts 126°
2026-05-07 01:34 22.69537 49.50305 38846 ft 497 kts 126°
2026-05-07 01:35 22.65793 49.56564 38842 ft 497 kts 126°
2026-05-07 01:35 22.62020 49.62865 38840 ft 498 kts 126°
2026-05-07 01:36 22.58266 49.69126 38833 ft 496 kts 127°
2026-05-07 01:36 22.54600 49.75454 38833 ft 500 kts 120°
2026-05-07 01:37 22.52322 49.82578 38839 ft 505 kts 106°
2026-05-07 01:37 22.50785 49.90005 38832 ft 505 kts 105°
2026-05-07 01:38 22.49261 49.97392 38834 ft 505 kts 105°
2026-05-07 01:38 22.47736 50.04747 38839 ft 506 kts 105°
2026-05-07 01:39 22.46188 50.12181 38835 ft 505 kts 105°
2026-05-07 01:39 22.44642 50.19583 38836 ft 507 kts 105°
2026-05-07 01:40 22.43089 50.26998 38836 ft 507 kts 105°
2026-05-07 01:40 22.41533 50.34410 38840 ft 507 kts 105°
2026-05-07 01:41 22.39976 50.41803 38836 ft 506 kts 105°
2026-05-07 01:41 22.38416 50.49199 38835 ft 506 kts 105°
2026-05-07 01:42 22.36853 50.56584 38839 ft 507 kts 105°
2026-05-07 01:42 22.35282 50.63994 38837 ft 506 kts 105°
2026-05-07 01:43 22.33707 50.71404 38831 ft 506 kts 105°
2026-05-07 01:43 22.32131 50.78801 38830 ft 506 kts 105°
2026-05-07 01:44 22.30545 50.86225 38825 ft 506 kts 105°
2026-05-07 01:44 22.28971 50.93579 38825 ft 506 kts 105°
2026-05-07 01:45 22.27382 51.00986 38823 ft 506 kts 105°
2026-05-07 01:45 22.25793 51.08376 38823 ft 506 kts 105°
2026-05-07 01:46 22.24197 51.15777 38821 ft 507 kts 105°
2026-05-07 01:46 22.22608 51.23134 38813 ft 506 kts 105°
2026-05-07 01:47 22.21007 51.30521 38810 ft 507 kts 105°
2026-05-07 01:47 22.19402 51.37919 38814 ft 506 kts 105°
2026-05-07 01:48 22.17805 51.45259 38807 ft 505 kts 105°
2026-05-07 01:48 22.16195 51.52642 38811 ft 506 kts 105°
2026-05-07 01:49 22.14585 51.60008 38814 ft 505 kts 105°
2026-05-07 01:49 22.12969 51.67382 38806 ft 505 kts 105°
2026-05-07 01:50 22.11355 51.74732 38802 ft 504 kts 105°
2026-05-07 01:50 22.09736 51.82091 38806 ft 505 kts 106°
2026-05-07 01:51 22.08105 51.89487 38806 ft 506 kts 106°
2026-05-07 01:51 22.06485 51.96816 38806 ft 505 kts 106°
2026-05-07 01:52 22.04854 52.04175 38808 ft 505 kts 106°
2026-05-07 01:52 22.03227 52.11501 38807 ft 503 kts 106°
2026-05-07 01:53 22.01602 52.18802 38814 ft 503 kts 105°
2026-05-07 01:53 21.99966 52.26141 38825 ft 503 kts 105°
2026-05-07 01:54 21.98337 52.33424 38833 ft 502 kts 105°
2026-05-07 01:54 21.96700 52.40733 38833 ft 503 kts 105°
2026-05-07 01:55 21.95062 52.48029 38829 ft 502 kts 105°
2026-05-07 01:55 21.93423 52.55313 38832 ft 501 kts 105°
2026-05-07 01:56 21.91784 52.62582 38829 ft 500 kts 106°
2026-05-07 01:56 21.90183 52.69864 38821 ft 501 kts 102°
2026-05-07 01:57 21.89584 52.77319 38826 ft 503 kts 95°
2026-05-07 01:57 21.89180 52.84856 38828 ft 503 kts 95°
2026-05-07 01:58 21.88769 52.92339 38828 ft 503 kts 95°
2026-05-07 01:58 21.88348 52.99858 38827 ft 502 kts 95°
2026-05-07 01:59 21.87923 53.07339 38827 ft 502 kts 95°
2026-05-07 01:59 21.87495 53.14799 38827 ft 502 kts 95°
2026-05-07 02:00 21.87062 53.22280 38828 ft 501 kts 95°
2026-05-07 02:00 21.86627 53.29733 38828 ft 501 kts 95°
2026-05-07 02:01 21.86188 53.37185 38826 ft 500 kts 95°
2026-05-07 02:01 21.85743 53.44668 38823 ft 501 kts 95°
2026-05-07 02:02 21.85296 53.52133 38822 ft 501 kts 95°
2026-05-07 02:02 21.84848 53.59577 38826 ft 500 kts 95°
2026-05-07 02:03 21.84394 53.67041 38825 ft 500 kts 96°
2026-05-07 02:03 21.83938 53.74484 38835 ft 500 kts 95°
2026-05-07 02:04 21.83479 53.81934 38840 ft 499 kts 95°
2026-05-07 02:04 21.83017 53.89378 38840 ft 498 kts 95°
2026-05-07 02:05 21.82552 53.96797 38843 ft 498 kts 95°
2026-05-07 02:05 21.82086 54.04191 38842 ft 499 kts 95°
2026-05-07 02:06 21.81614 54.11630 38843 ft 499 kts 95°
2026-05-07 02:06 21.81139 54.19064 38849 ft 498 kts 95°
2026-05-07 02:07 21.80663 54.26454 38853 ft 498 kts 95°
2026-05-07 02:07 21.79938 54.37627 38837 ft 498 kts 95°
2026-05-07 02:08 21.79455 54.45000 38833 ft 498 kts 94°
2026-05-07 02:08 21.79996 54.52420 38835 ft 501 kts 77°
2026-05-07 02:09 21.82592 54.59338 38834 ft 503 kts 59°
2026-05-07 02:09 21.86899 54.65302 38835 ft 503 kts 49°
2026-05-07 02:10 21.91506 54.70956 38836 ft 503 kts 49°
2026-05-07 02:10 21.96129 54.76644 38835 ft 503 kts 49°
2026-05-07 02:11 22.00705 54.82285 38846 ft 503 kts 49°
2026-05-07 02:11 22.05301 54.87962 38862 ft 501 kts 49°
2026-05-07 02:12 22.09879 54.93624 38870 ft 503 kts 49°
2026-05-07 02:12 22.14523 54.99377 38871 ft 505 kts 49°
2026-05-07 02:13 22.19110 55.05065 38872 ft 504 kts 49°
2026-05-07 02:13 22.23694 55.10756 38869 ft 504 kts 49°
2026-05-07 02:14 22.28298 55.16479 38865 ft 504 kts 49°
2026-05-07 02:14 22.32908 55.22216 38863 ft 503 kts 49°
2026-05-07 02:15 22.37484 55.27916 38856 ft 505 kts 49°
2026-05-07 02:15 22.42084 55.33653 38858 ft 505 kts 49°
2026-05-07 02:16 22.45953 55.39893 38857 ft 504 kts 65°
2026-05-07 02:16 22.48692 55.46919 38860 ft 505 kts 68°
2026-05-07 02:17 22.51328 55.53915 38861 ft 505 kts 68°
2026-05-07 02:17 22.53967 55.60942 38871 ft 506 kts 68°
2026-05-07 02:18 22.56604 55.67979 38869 ft 504 kts 68°
2026-05-07 02:18 22.59237 55.75019 38871 ft 505 kts 68°
2026-05-07 02:19 22.61867 55.82063 38879 ft 505 kts 68°
2026-05-07 02:19 22.64487 55.89092 38879 ft 504 kts 68°
2026-05-07 02:20 22.67102 55.96120 38886 ft 504 kts 68°
2026-05-07 02:20 22.69705 56.03126 38891 ft 505 kts 68°
2026-05-07 02:21 22.72322 56.10180 38899 ft 505 kts 68°
2026-05-07 02:21 22.74939 56.17247 38906 ft 504 kts 68°
2026-05-07 02:22 22.77533 56.24263 38907 ft 504 kts 68°
2026-05-07 02:22 22.80145 56.31338 38915 ft 505 kts 68°
2026-05-07 02:23 22.82642 56.38387 38931 ft 505 kts 74°
2026-05-07 02:23 22.84189 56.45801 38950 ft 506 kts 78°
2026-05-07 02:24 22.85605 56.53237 38965 ft 505 kts 78°
2026-05-07 02:24 22.87020 56.60692 38967 ft 505 kts 78°
2026-05-07 02:25 22.88428 56.68124 38988 ft 505 kts 79°
2026-05-07 02:25 22.89831 56.75555 38996 ft 504 kts 79°
2026-05-07 02:26 22.91231 56.82986 39006 ft 504 kts 79°
2026-05-07 02:26 22.92627 56.90418 39020 ft 503 kts 79°
2026-05-07 02:27 22.94019 56.97850 39039 ft 503 kts 78°
2026-05-07 02:27 22.95407 57.05274 39063 ft 504 kts 78°
2026-05-07 02:28 22.96791 57.12702 39064 ft 503 kts 78°
2026-05-07 02:28 22.98174 57.20143 39064 ft 503 kts 78°
2026-05-07 02:29 22.99546 57.27543 39078 ft 504 kts 78°
2026-05-07 02:29 23.00272 57.35096 39071 ft 504 kts 88°
2026-05-07 02:30 23.00518 57.42651 39053 ft 503 kts 88°
2026-05-07 02:30 23.00754 57.50202 39034 ft 503 kts 88°
2026-05-07 02:31 23.00988 57.57773 39046 ft 504 kts 88°
2026-05-07 02:31 23.01219 57.65402 39051 ft 504 kts 88°
2026-05-07 02:32 23.01446 57.72991 39046 ft 504 kts 88°
2026-05-07 02:32 23.01668 57.80579 39053 ft 504 kts 89°
2026-05-07 02:33 23.01852 57.88171 39042 ft 504 kts 90°
2026-05-07 02:33 23.01844 57.95741 39050 ft 503 kts 90°
2026-05-07 02:34 23.01831 58.03341 39031 ft 505 kts 90°
2026-05-07 02:34 23.01822 58.10962 39044 ft 504 kts 90°
2026-05-07 02:35 23.01813 58.18499 39045 ft 505 kts 90°
2026-05-07 02:35 23.01801 58.26154 39039 ft 506 kts 90°
2026-05-07 02:36 23.01787 58.33725 39045 ft 506 kts 90°
2026-05-07 02:36 23.01847 58.41379 39049 ft 505 kts 88°
2026-05-07 02:37 23.02128 58.48941 39047 ft 505 kts 87°
2026-05-07 02:37 23.02401 58.56567 39033 ft 505 kts 88°
2026-05-07 02:38 23.02662 58.64138 39004 ft 504 kts 88°
2026-05-07 02:38 23.02915 58.71741 38981 ft 504 kts 88°
2026-05-07 02:39 23.03163 58.79349 38976 ft 506 kts 88°
2026-05-07 02:39 23.03406 58.86991 39009 ft 507 kts 88°
2026-05-07 02:40 23.03644 58.94594 39047 ft 506 kts 88°
2026-05-07 02:40 23.03879 59.02238 39071 ft 506 kts 88°
2026-05-07 02:41 23.04104 59.09844 39020 ft 505 kts 88°
2026-05-07 02:41 23.04325 59.17417 38934 ft 506 kts 88°
2026-05-07 02:42 23.04544 59.25016 38869 ft 506 kts 88°
2026-05-07 02:42 23.04760 59.32665 38865 ft 505 kts 88°
2026-05-07 02:43 23.04954 59.40236 38859 ft 505 kts 88°
2026-05-07 02:43 23.05070 59.47860 38856 ft 505 kts 89°
2026-05-07 02:44 23.05183 59.55477 38845 ft 506 kts 89°
2026-05-07 02:44 23.05294 59.63052 38857 ft 505 kts 89°
2026-05-07 02:45 23.05403 59.70678 38838 ft 506 kts 89°
2026-05-07 02:45 23.05509 59.78294 38824 ft 506 kts 89°
2026-05-07 02:46 23.05611 59.85907 38828 ft 505 kts 89°
2026-05-07 02:46 23.05038 59.93539 38804 ft 505 kts 101°
2026-05-07 02:47 23.03706 60.00992 38804 ft 504 kts 101°
2026-05-07 02:47 23.02356 60.08429 38812 ft 503 kts 101°
2026-05-07 02:48 23.00999 60.15891 38797 ft 504 kts 101°
2026-05-07 02:48 22.99641 60.23334 38796 ft 505 kts 101°
2026-05-07 02:49 22.98282 60.30766 38807 ft 505 kts 101°
2026-05-07 02:49 22.96912 60.38234 38817 ft 504 kts 101°
2026-05-07 02:50 22.95542 60.45685 38818 ft 504 kts 101°
2026-05-07 02:50 22.94170 60.53126 38822 ft 503 kts 101°
2026-05-07 02:51 22.92800 60.60530 38824 ft 504 kts 101°
2026-05-07 02:51 22.91419 60.67983 38820 ft 503 kts 102°
2026-05-07 02:52 22.90038 60.75408 38822 ft 503 kts 102°
2026-05-07 02:52 22.88660 60.82803 38827 ft 502 kts 102°
2026-05-07 02:53 22.87278 60.90194 38826 ft 504 kts 102°
2026-05-07 02:53 22.85884 60.97633 38825 ft 505 kts 102°
2026-05-07 02:54 22.84489 61.05056 38823 ft 504 kts 102°
2026-05-07 02:54 22.83087 61.12495 38815 ft 504 kts 102°
2026-05-07 02:55 22.81684 61.19922 38814 ft 503 kts 102°
2026-05-07 02:55 22.80281 61.27326 38822 ft 503 kts 102°
2026-05-07 02:56 22.78880 61.34706 38823 ft 502 kts 102°
2026-05-07 02:56 22.77475 61.42084 38822 ft 502 kts 102°
2026-05-07 02:57 22.76062 61.49481 38825 ft 504 kts 102°
2026-05-07 02:57 22.74640 61.56912 38825 ft 504 kts 102°
2026-05-07 02:58 22.73219 61.64317 38832 ft 504 kts 102°
2026-05-07 02:58 22.71794 61.71722 38831 ft 504 kts 102°
2026-05-07 02:59 22.70367 61.79113 38838 ft 503 kts 102°
2026-05-07 02:59 22.68935 61.86518 38842 ft 503 kts 102°
2026-05-07 03:00 22.67503 61.93901 38847 ft 502 kts 102°
2026-05-07 03:00 22.66064 62.01304 38847 ft 502 kts 102°
2026-05-07 03:01 22.64633 62.08646 38842 ft 503 kts 102°
2026-05-07 03:01 22.63188 62.16041 38840 ft 504 kts 102°
2026-05-07 03:02 22.61740 62.23430 38835 ft 503 kts 102°
2026-05-07 03:02 22.60280 62.30861 38841 ft 504 kts 102°
2026-05-07 03:03 22.58831 62.38221 38851 ft 504 kts 102°
2026-05-07 03:03 22.57365 62.45646 38856 ft 504 kts 102°
2026-05-07 03:04 22.55900 62.53044 38860 ft 504 kts 102°
2026-05-07 03:04 22.54435 62.60430 38858 ft 505 kts 102°
2026-05-07 03:05 22.52963 62.67829 38854 ft 503 kts 102°
2026-05-07 03:05 22.51489 62.75219 38858 ft 503 kts 102°
2026-05-07 03:06 22.50015 62.82593 38857 ft 503 kts 102°
2026-05-07 03:06 22.48531 62.89995 38856 ft 504 kts 102°
2026-05-07 03:07 22.47059 62.97325 38852 ft 505 kts 102°
2026-05-07 03:07 22.45567 63.04733 38846 ft 503 kts 102°
2026-05-07 03:08 22.43785 63.12022 38847 ft 503 kts 111°
2026-05-07 03:08 22.40901 63.18863 38849 ft 503 kts 116°
2026-05-07 03:09 22.37865 63.25706 38853 ft 503 kts 116°
2026-05-07 03:09 22.34849 63.32469 38852 ft 503 kts 116°
2026-05-07 03:10 22.31816 63.39247 38858 ft 502 kts 116°
2026-05-07 03:10 22.28769 63.46041 38865 ft 502 kts 116°
2026-05-07 03:11 22.25729 63.52806 38864 ft 502 kts 116°
2026-05-07 03:11 22.22679 63.59583 38864 ft 502 kts 116°
2026-05-07 03:12 22.19628 63.66350 38865 ft 502 kts 116°
2026-05-07 03:12 22.16565 63.73136 38860 ft 503 kts 116°
2026-05-07 03:13 22.13510 63.79894 38856 ft 503 kts 116°
2026-05-07 03:13 22.10453 63.86647 38848 ft 502 kts 116°
2026-05-07 03:14 22.07397 63.93388 38848 ft 502 kts 116°
2026-05-07 03:15 22.02811 64.03489 38849 ft 502 kts 116°
2026-05-07 03:15 21.99741 64.10238 38848 ft 503 kts 116°
2026-05-07 03:16 21.96671 64.16979 38849 ft 502 kts 116°
2026-05-07 03:16 21.93594 64.23726 38851 ft 501 kts 116°
2026-05-07 03:17 21.90526 64.30444 38850 ft 502 kts 116°
2026-05-07 03:17 21.87436 64.37203 38849 ft 502 kts 116°
2026-05-07 03:18 21.84366 64.43907 38852 ft 501 kts 116°
2026-05-07 03:18 21.81301 64.50592 38852 ft 501 kts 116°
2026-05-07 03:19 21.78223 64.57297 38856 ft 500 kts 116°
2026-05-07 03:19 21.75134 64.64018 38858 ft 501 kts 116°
2026-05-07 03:20 21.72052 64.70715 38858 ft 500 kts 116°
2026-05-07 03:20 21.68973 64.77395 38855 ft 501 kts 116°
2026-05-07 03:21 21.65885 64.84087 38855 ft 501 kts 116°
2026-05-07 03:21 21.62781 64.90806 38865 ft 500 kts 116°
2026-05-07 03:22 21.59692 64.97481 38866 ft 500 kts 116°
2026-05-07 03:22 21.56608 65.04139 38866 ft 500 kts 116°
2026-05-07 03:23 21.53500 65.10840 38869 ft 500 kts 116°
2026-05-07 03:23 21.50403 65.17508 38867 ft 500 kts 116°
2026-05-07 03:24 21.47302 65.24178 38866 ft 500 kts 116°
2026-05-07 03:24 21.44198 65.30843 38872 ft 501 kts 116°
2026-05-07 03:25 21.41108 65.37470 38868 ft 499 kts 116°
2026-05-07 03:25 21.38003 65.44122 38874 ft 499 kts 116°
2026-05-07 03:26 21.34882 65.50798 38878 ft 499 kts 116°
2026-05-07 03:26 21.31788 65.57410 38872 ft 499 kts 116°
2026-05-07 03:27 21.28673 65.64058 38875 ft 499 kts 116°
2026-05-07 03:27 21.25563 65.70686 38883 ft 500 kts 117°
2026-05-07 03:28 21.22442 65.77331 38883 ft 500 kts 117°
2026-05-07 03:28 21.19316 65.83977 38885 ft 499 kts 117°
2026-05-07 03:29 21.16180 65.90636 38884 ft 499 kts 117°
2026-05-07 03:29 21.13065 65.97241 38877 ft 499 kts 117°
2026-05-07 03:30 21.09969 66.03900 38884 ft 498 kts 116°
2026-05-07 03:30 21.06956 66.10558 38883 ft 498 kts 116°
2026-05-07 03:31 21.04078 66.16903 38884 ft 499 kts 116°
2026-05-07 03:31 21.01041 66.23583 38872 ft 500 kts 116°
2026-05-07 03:32 20.98013 66.30234 38873 ft 500 kts 116°
2026-05-07 03:32 20.96480 66.33595 38765 ft 501 kts 116°
2026-05-07 03:32 20.94943 66.36964 37928 ft 510 kts 116°
2026-05-07 03:32 20.93394 66.40354 36517 ft 519 kts 116°
2026-05-07 03:33 20.91803 66.43836 35069 ft 526 kts 116°
2026-05-07 03:33 20.90211 66.47317 33461 ft 524 kts 115°
2026-05-07 03:33 20.88627 66.50778 32122 ft 517 kts 115°
2026-05-07 03:33 20.87043 66.54238 30869 ft 511 kts 115°
2026-05-07 03:34 20.85510 66.57584 29652 ft 506 kts 115°
2026-05-07 03:34 20.83976 66.60929 28418 ft 500 kts 115°
2026-05-07 03:34 20.82444 66.64268 27157 ft 495 kts 115°
2026-05-07 03:34 20.80946 66.67532 25913 ft 490 kts 115°
2026-05-07 03:35 20.79470 66.70745 24682 ft 484 kts 115°
2026-05-07 03:35 20.77981 66.73983 23433 ft 478 kts 114°
2026-05-07 03:35 20.76525 66.77146 22421 ft 467 kts 114°
2026-05-07 03:35 20.75126 66.80185 21858 ft 448 kts 114°
2026-05-07 03:36 20.73797 66.83068 21616 ft 428 kts 114°
2026-05-07 03:36 20.72478 66.85931 21415 ft 423 kts 113°
2026-05-07 03:36 20.71172 66.88768 21262 ft 420 kts 113°
2026-05-07 03:36 20.69882 66.91567 21155 ft 419 kts 113°
2026-05-07 03:37 20.68594 66.94360 21075 ft 418 kts 113°
2026-05-07 03:37 20.67316 66.97128 21010 ft 417 kts 113°
2026-05-07 03:37 20.66032 66.99910 20951 ft 417 kts 113°
2026-05-07 03:37 20.64748 67.02689 20898 ft 416 kts 113°
2026-05-07 03:38 20.63478 67.05437 20848 ft 415 kts 113°
2026-05-07 03:38 20.62196 67.08209 20797 ft 416 kts 113°
2026-05-07 03:38 20.60887 67.11037 20747 ft 415 kts 113°
2026-05-07 03:38 20.59612 67.13792 20697 ft 416 kts 113°
2026-05-07 03:39 20.58338 67.16539 20647 ft 415 kts 113°
2026-05-07 03:39 20.57040 67.19341 20595 ft 415 kts 113°
2026-05-07 03:39 20.55767 67.22085 20544 ft 413 kts 113°
2026-05-07 03:39 20.54484 67.24851 20495 ft 413 kts 113°
2026-05-07 03:40 20.53363 67.27266 20452 ft 413 kts 113°
2026-05-07 03:40 20.52259 67.29642 20403 ft 412 kts 113°
2026-05-07 03:40 20.50978 67.32400 20355 ft 412 kts 113°
2026-05-07 03:41 20.49713 67.35120 20306 ft 411 kts 113°
2026-05-07 03:41 20.48437 67.37864 20259 ft 411 kts 113°
2026-05-07 03:41 20.47177 67.40572 20215 ft 410 kts 113°
2026-05-07 03:41 20.45908 67.43295 20166 ft 410 kts 113°
2026-05-07 03:42 20.44621 67.46060 20114 ft 409 kts 113°
2026-05-07 03:42 20.43366 67.48753 20066 ft 409 kts 113°
2026-05-07 03:42 20.42096 67.51475 20018 ft 408 kts 113°
2026-05-07 03:42 20.40823 67.54205 19969 ft 408 kts 113°
2026-05-07 03:43 20.39568 67.56893 19921 ft 407 kts 113°
2026-05-07 03:43 20.38293 67.59624 19872 ft 406 kts 113°
2026-05-07 03:43 20.37037 67.62312 19825 ft 407 kts 113°
2026-05-07 03:43 20.35756 67.65052 19771 ft 405 kts 114°
2026-05-07 03:44 20.34470 67.67802 19725 ft 407 kts 114°
2026-05-07 03:44 20.33212 67.70491 19675 ft 405 kts 113°
2026-05-07 03:44 20.31953 67.73179 19625 ft 405 kts 114°
2026-05-07 03:44 20.30694 67.75868 19573 ft 404 kts 114°
2026-05-07 03:45 20.29445 67.78532 19523 ft 404 kts 114°
2026-05-07 03:45 20.28185 67.81221 19472 ft 403 kts 114°
2026-05-07 03:45 20.26944 67.83865 19424 ft 403 kts 114°
2026-05-07 03:45 20.25693 67.86530 19378 ft 401 kts 114°
2026-05-07 03:46 20.24436 67.89209 19332 ft 401 kts 114°
2026-05-07 03:46 20.23195 67.91851 19284 ft 401 kts 114°
2026-05-07 03:46 20.21946 67.94508 19237 ft 400 kts 114°
2026-05-07 03:46 20.20712 67.97134 19190 ft 400 kts 114°
2026-05-07 03:47 20.19468 67.99779 19143 ft 399 kts 114°
2026-05-07 03:47 20.18219 68.02433 19097 ft 399 kts 114°
2026-05-07 03:47 20.16982 68.05060 19052 ft 399 kts 114°
2026-05-07 03:47 20.15743 68.07690 19008 ft 399 kts 114°
2026-05-07 03:48 20.14486 68.10355 18957 ft 400 kts 114°
2026-05-07 03:48 20.13244 68.12991 18903 ft 398 kts 114°
2026-05-07 03:48 20.12000 68.15627 18853 ft 398 kts 114°
2026-05-07 03:48 20.10749 68.18278 18805 ft 398 kts 114°
2026-05-07 03:49 20.09498 68.20927 18758 ft 397 kts 114°
2026-05-07 03:49 20.08268 68.23531 18713 ft 396 kts 114°
2026-05-07 03:49 20.07033 68.26143 18666 ft 396 kts 114°
2026-05-07 03:49 20.05798 68.28754 18618 ft 396 kts 114°
2026-05-07 03:50 20.04552 68.31389 18571 ft 395 kts 114°
2026-05-07 03:50 20.03313 68.34007 18527 ft 395 kts 114°
2026-05-07 03:50 20.02083 68.36604 18476 ft 394 kts 114°
2026-05-07 03:50 20.00855 68.39195 18429 ft 394 kts 114°
2026-05-07 03:51 19.99616 68.41811 18384 ft 394 kts 114°
2026-05-07 03:51 19.98387 68.44402 18335 ft 393 kts 114°
2026-05-07 03:51 19.97158 68.46992 18285 ft 393 kts 114°
2026-05-07 03:51 19.95923 68.49595 18237 ft 393 kts 114°
2026-05-07 03:52 19.94694 68.52183 18190 ft 393 kts 114°
2026-05-07 03:52 19.93460 68.54781 18142 ft 392 kts 114°
2026-05-07 03:52 19.92236 68.57357 18095 ft 393 kts 114°
2026-05-07 03:52 19.90998 68.59958 18044 ft 392 kts 114°
2026-05-07 03:53 19.89772 68.62535 17994 ft 391 kts 114°
2026-05-07 03:53 19.88531 68.65143 17937 ft 391 kts 114°
2026-05-07 03:53 19.87304 68.67720 17884 ft 391 kts 114°
2026-05-07 03:53 19.86075 68.70301 17835 ft 391 kts 114°
2026-05-07 03:54 19.84856 68.72859 17786 ft 391 kts 114°
2026-05-07 03:54 19.83618 68.75455 17734 ft 390 kts 114°
2026-05-07 03:54 19.82398 68.78013 17685 ft 389 kts 114°
2026-05-07 03:54 19.81169 68.80588 17639 ft 390 kts 114°
2026-05-07 03:55 19.79949 68.83142 17591 ft 389 kts 114°
2026-05-07 03:55 19.78717 68.85721 17545 ft 389 kts 114°
2026-05-07 03:55 19.77497 68.88274 17497 ft 389 kts 114°
2026-05-07 03:55 19.76247 68.90891 17457 ft 408 kts 114°
2026-05-07 03:56 19.74954 68.93597 17403 ft 412 kts 115°
2026-05-07 03:56 19.73656 68.96309 17352 ft 411 kts 115°
2026-05-07 03:56 19.72355 68.99023 17300 ft 412 kts 115°
2026-05-07 03:56 19.71065 69.01717 17251 ft 411 kts 115°
2026-05-07 03:57 19.69758 69.04443 17198 ft 410 kts 115°
2026-05-07 03:57 19.68465 69.07139 17149 ft 410 kts 115°
2026-05-07 03:57 19.67165 69.09847 17103 ft 409 kts 114°
2026-05-07 03:57 19.65866 69.12553 17053 ft 408 kts 114°
2026-05-07 03:58 19.64580 69.15232 17003 ft 408 kts 114°
2026-05-07 03:58 19.63273 69.17954 16952 ft 408 kts 114°
2026-05-07 03:58 19.61991 69.20622 16903 ft 407 kts 115°
2026-05-07 03:58 19.60703 69.23299 16856 ft 406 kts 115°
2026-05-07 03:59 19.59421 69.25964 16808 ft 405 kts 115°
2026-05-07 03:59 19.58127 69.28654 16757 ft 406 kts 115°
2026-05-07 03:59 19.56849 69.31307 16709 ft 406 kts 114°
2026-05-07 03:59 19.55560 69.33983 16658 ft 406 kts 115°
2026-05-07 04:00 19.54283 69.36640 16610 ft 406 kts 114°
2026-05-07 04:00 19.52999 69.39330 16564 ft 405 kts 114°
2026-05-07 04:00 19.51734 69.41982 16513 ft 405 kts 114°
2026-05-07 04:00 19.50464 69.44642 16464 ft 404 kts 115°
2026-05-07 04:01 19.49195 69.47296 16415 ft 403 kts 114°
2026-05-07 04:01 19.47929 69.49944 16368 ft 403 kts 114°
2026-05-07 04:01 19.46659 69.52598 16319 ft 403 kts 115°
2026-05-07 04:01 19.45404 69.55219 16270 ft 402 kts 115°
2026-05-07 04:02 19.44119 69.57903 16221 ft 402 kts 115°
2026-05-07 04:02 19.42867 69.60516 16175 ft 402 kts 115°
2026-05-07 04:02 19.41598 69.63165 16125 ft 402 kts 115°
2026-05-07 04:02 19.40327 69.65815 16075 ft 403 kts 115°
2026-05-07 04:03 19.39056 69.68463 16026 ft 401 kts 115°
2026-05-07 04:03 19.37802 69.71075 15979 ft 402 kts 115°
2026-05-07 04:03 19.36536 69.73710 15930 ft 400 kts 115°
2026-05-07 04:03 19.35261 69.76363 15880 ft 399 kts 115°
2026-05-07 04:04 19.33995 69.78999 15833 ft 399 kts 115°
2026-05-07 04:04 19.32730 69.81627 15786 ft 399 kts 115°
2026-05-07 04:04 19.31887 69.83379 15752 ft 399 kts 115°
2026-05-07 04:04 19.30202 69.86880 15688 ft 398 kts 115°
2026-05-07 04:05 19.29793 69.87729 15672 ft 398 kts 115°
2026-05-07 04:05 19.26675 69.94202 15553 ft 397 kts 115°
2026-05-07 04:05 19.25417 69.96809 15505 ft 396 kts 115°
2026-05-07 04:06 19.24157 69.99423 15457 ft 396 kts 115°
2026-05-07 04:06 19.22917 70.01992 15411 ft 396 kts 115°
2026-05-07 04:06 19.21656 70.04603 15362 ft 395 kts 116°
2026-05-07 04:06 19.20396 70.07212 15315 ft 395 kts 116°
2026-05-07 04:07 19.19147 70.09797 15266 ft 394 kts 116°
2026-05-07 04:07 19.17906 70.12363 15216 ft 394 kts 116°
2026-05-07 04:07 19.16660 70.14939 15168 ft 393 kts 116°
2026-05-07 04:07 19.15405 70.17532 15119 ft 393 kts 116°
2026-05-07 04:08 19.14148 70.20128 15070 ft 392 kts 116°
2026-05-07 04:08 19.13008 70.22712 15021 ft 391 kts 111°
2026-05-07 04:08 19.11999 70.25395 14978 ft 391 kts 110°
2026-05-07 04:08 19.10992 70.28098 14933 ft 391 kts 110°
2026-05-07 04:09 19.09996 70.30768 14888 ft 390 kts 110°
2026-05-07 04:09 19.08983 70.33477 14842 ft 390 kts 110°
2026-05-07 04:09 19.07980 70.36157 14795 ft 389 kts 110°
2026-05-07 04:09 19.06988 70.38806 14745 ft 388 kts 110°
2026-05-07 04:10 19.06000 70.41441 14697 ft 387 kts 110°
2026-05-07 04:10 19.05002 70.44103 14648 ft 386 kts 110°
2026-05-07 04:10 19.04005 70.46757 14599 ft 386 kts 110°
2026-05-07 04:10 19.03003 70.49426 14552 ft 386 kts 110°
2026-05-07 04:11 19.02008 70.52074 14504 ft 385 kts 111°
2026-05-07 04:11 19.01029 70.54679 14458 ft 385 kts 111°
2026-05-07 04:11 19.00035 70.57322 14411 ft 385 kts 111°
2026-05-07 04:11 18.99038 70.59970 14365 ft 386 kts 111°
2026-05-07 04:12 18.98044 70.62609 14317 ft 385 kts 111°
2026-05-07 04:12 18.97048 70.65253 14270 ft 384 kts 111°
2026-05-07 04:12 18.96062 70.67870 14223 ft 384 kts 111°
2026-05-07 04:12 18.95063 70.70519 14176 ft 383 kts 111°
2026-05-07 04:13 18.94076 70.73133 14129 ft 382 kts 111°
2026-05-07 04:13 18.93091 70.75743 14082 ft 382 kts 111°
2026-05-07 04:13 18.92097 70.78376 14035 ft 381 kts 111°
2026-05-07 04:13 18.91128 70.80940 13990 ft 381 kts 111°
2026-05-07 04:14 18.90141 70.83550 13944 ft 380 kts 112°
2026-05-07 04:14 18.89158 70.86150 13897 ft 381 kts 112°
2026-05-07 04:14 18.88178 70.88739 13851 ft 381 kts 112°
2026-05-07 04:14 18.87193 70.91343 13803 ft 381 kts 112°
2026-05-07 04:15 18.86209 70.93940 13759 ft 381 kts 112°
2026-05-07 04:15 18.85215 70.96564 13711 ft 381 kts 112°
2026-05-07 04:15 18.84235 70.99146 13665 ft 380 kts 112°
2026-05-07 04:15 18.83242 71.01766 13618 ft 381 kts 112°
2026-05-07 04:16 18.82259 71.04356 13571 ft 379 kts 112°
2026-05-07 04:16 18.81289 71.06909 13528 ft 378 kts 112°
2026-05-07 04:16 18.80310 71.09488 13481 ft 376 kts 112°
2026-05-07 04:16 18.79321 71.12091 13432 ft 374 kts 112°
2026-05-07 04:17 18.78347 71.14651 13388 ft 375 kts 112°
2026-05-07 04:17 18.77369 71.17223 13343 ft 375 kts 112°
2026-05-07 04:17 18.76403 71.19762 13300 ft 374 kts 112°
2026-05-07 04:17 18.75428 71.22320 13253 ft 374 kts 112°
2026-05-07 04:18 18.74446 71.24899 13206 ft 374 kts 112°
2026-05-07 04:18 18.73474 71.27450 13161 ft 373 kts 112°
2026-05-07 04:18 18.72506 71.29987 13114 ft 373 kts 112°
2026-05-07 04:18 18.71522 71.32567 13069 ft 372 kts 112°
2026-05-07 04:19 18.70552 71.35107 13023 ft 371 kts 112°
2026-05-07 04:19 18.69593 71.37619 12976 ft 369 kts 112°
2026-05-07 04:19 18.68620 71.40167 12930 ft 368 kts 112°
2026-05-07 04:19 18.67651 71.42701 12884 ft 367 kts 112°
2026-05-07 04:20 18.66701 71.45187 12840 ft 367 kts 112°
2026-05-07 04:20 18.65739 71.47702 12796 ft 366 kts 112°
2026-05-07 04:20 18.64776 71.50218 12749 ft 362 kts 112°
2026-05-07 04:21 18.62955 71.54974 12661 ft 345 kts 113°
2026-05-07 04:21 18.62051 71.57331 12622 ft 344 kts 113°
2026-05-07 04:21 18.61154 71.59672 12579 ft 343 kts 113°
2026-05-07 04:21 18.60261 71.61997 12535 ft 342 kts 113°
2026-05-07 04:22 18.59357 71.64354 12488 ft 343 kts 113°
2026-05-07 04:22 18.58457 71.66697 12443 ft 343 kts 113°
2026-05-07 04:22 18.57565 71.69021 12401 ft 343 kts 113°
2026-05-07 04:22 18.56660 71.71376 12360 ft 343 kts 113°
2026-05-07 04:23 18.55770 71.73692 12323 ft 342 kts 114°
2026-05-07 04:23 18.54866 71.76041 12283 ft 342 kts 114°
2026-05-07 04:23 18.53967 71.78379 12243 ft 342 kts 114°
2026-05-07 04:23 18.53076 71.80693 12204 ft 340 kts 114°
2026-05-07 04:24 18.52192 71.82988 12165 ft 339 kts 114°
2026-05-07 04:24 18.51298 71.85311 12122 ft 340 kts 114°
2026-05-07 04:24 18.50407 71.87621 12079 ft 339 kts 114°
2026-05-07 04:24 18.49506 71.89959 12035 ft 339 kts 113°
2026-05-07 04:25 18.48621 71.92253 11992 ft 339 kts 113°
2026-05-07 04:25 18.47731 71.94562 11947 ft 337 kts 113°
2026-05-07 04:25 18.46854 71.96833 11898 ft 338 kts 113°
2026-05-07 04:25 18.45968 71.99126 11856 ft 338 kts 113°
2026-05-07 04:26 18.45075 72.01437 11818 ft 337 kts 113°
2026-05-07 04:26 18.44427 72.03783 11774 ft 340 kts 100°
2026-05-07 04:26 18.44371 72.06291 11732 ft 342 kts 85°
2026-05-07 04:26 18.44943 72.08723 11695 ft 345 kts 70°
2026-05-07 04:27 18.46121 72.10936 11690 ft 348 kts 55°
2026-05-07 04:27 18.47700 72.12888 11692 ft 349 kts 50°
2026-05-07 04:27 18.49324 72.14758 11607 ft 340 kts 49°
2026-05-07 04:27 18.50896 72.16543 11483 ft 331 kts 49°
2026-05-07 04:28 18.52475 72.18330 11360 ft 329 kts 49°
2026-05-07 04:28 18.54038 72.20096 11247 ft 327 kts 49°
2026-05-07 04:28 18.55564 72.21817 11120 ft 317 kts 49°
2026-05-07 04:28 18.57059 72.23502 10993 ft 306 kts 49°
2026-05-07 04:29 18.58514 72.25144 10872 ft 302 kts 49°
2026-05-07 04:29 18.59955 72.26772 10758 ft 301 kts 49°
2026-05-07 04:29 18.61368 72.28368 10638 ft 301 kts 49°
2026-05-07 04:29 18.62805 72.29991 10515 ft 300 kts 49°
2026-05-07 04:30 18.64217 72.31587 10391 ft 299 kts 49°
2026-05-07 04:30 18.65642 72.33196 10271 ft 299 kts 49°
2026-05-07 04:30 18.67063 72.34802 10156 ft 298 kts 49°
2026-05-07 04:30 18.68471 72.36394 10027 ft 298 kts 49°
2026-05-07 04:31 18.69897 72.38006 9901 ft 296 kts 49°
2026-05-07 04:31 18.71288 72.39580 9785 ft 296 kts 49°
2026-05-07 04:31 18.72709 72.41187 9672 ft 296 kts 49°
2026-05-07 04:31 18.74118 72.42781 9553 ft 296 kts 49°
2026-05-07 04:32 18.75516 72.44363 9352 ft 295 kts 49°
2026-05-07 04:32 18.76913 72.45946 9117 ft 294 kts 49°
2026-05-07 04:32 18.78298 72.47514 8899 ft 291 kts 49°
2026-05-07 04:32 18.79671 72.49069 8689 ft 285 kts 48°
2026-05-07 04:33 18.81011 72.50588 8495 ft 279 kts 49°
2026-05-07 04:33 18.82309 72.52058 8313 ft 274 kts 48°
2026-05-07 04:33 18.83601 72.53523 8114 ft 269 kts 48°
2026-05-07 04:33 18.84871 72.54964 7915 ft 265 kts 48°
2026-05-07 04:34 18.86122 72.56383 7715 ft 261 kts 48°
2026-05-07 04:34 18.87353 72.57779 7537 ft 260 kts 48°
2026-05-07 04:34 18.88581 72.59173 7346 ft 260 kts 47°
2026-05-07 04:34 18.89755 72.60632 7146 ft 257 kts 58°
2026-05-07 04:35 18.90446 72.62354 6932 ft 256 kts 77°
2026-05-07 04:35 18.90655 72.64199 6723 ft 256 kts 85°
2026-05-07 04:35 18.90771 72.66074 6537 ft 255 kts 86°
2026-05-07 04:35 18.90856 72.67880 6363 ft 254 kts 86°
2026-05-07 04:36 18.90934 72.69756 6156 ft 251 kts 86°
2026-05-07 04:36 18.91008 72.71573 5968 ft 247 kts 86°
2026-05-07 04:36 18.91081 72.73386 5778 ft 244 kts 86°
2026-05-07 04:36 18.91152 72.75146 5590 ft 241 kts 86°
2026-05-07 04:37 18.91223 72.76907 5401 ft 238 kts 86°
2026-05-07 04:37 18.91302 72.78654 5214 ft 235 kts 85°
2026-05-07 04:37 18.91367 72.80362 5027 ft 233 kts 86°
2026-05-07 04:37 18.91430 72.82056 4838 ft 231 kts 85°
2026-05-07 04:38 18.91496 72.83742 4645 ft 229 kts 85°
2026-05-07 04:38 18.91576 72.85410 4531 ft 236 kts 84°
2026-05-07 04:38 18.91645 72.87113 4514 ft 228 kts 86°
2026-05-07 04:38 18.91700 72.88775 4508 ft 224 kts 85°
2026-05-07 04:39 18.91760 72.90405 4452 ft 219 kts 85°
2026-05-07 04:39 18.91822 72.92002 4273 ft 215 kts 85°
2026-05-07 04:39 18.91883 72.93565 4147 ft 212 kts 85°
2026-05-07 04:39 18.91945 72.95126 4026 ft 212 kts 85°
2026-05-07 04:40 18.92005 72.96661 3900 ft 206 kts 85°
2026-05-07 04:40 18.92067 72.98160 3802 ft 203 kts 84°
2026-05-07 04:40 18.92142 72.99680 3779 ft 208 kts 85°
2026-05-07 04:40 18.92188 73.01213 3668 ft 204 kts 85°
2026-05-07 04:41 18.92240 73.02689 3526 ft 201 kts 85°
2026-05-07 04:41 18.92297 73.04172 3382 ft 200 kts 84°
2026-05-07 04:41 18.92353 73.05617 3238 ft 200 kts 84°
2026-05-07 04:41 18.92410 73.07104 3089 ft 199 kts 84°
2026-05-07 04:42 18.92466 73.08543 3028 ft 199 kts 84°
2026-05-07 04:42 18.92522 73.10008 3013 ft 200 kts 84°
2026-05-07 04:42 18.92578 73.11472 3008 ft 199 kts 84°
2026-05-07 04:42 18.92845 73.12875 3017 ft 189 kts 58°
2026-05-07 04:43 18.93767 73.13734 2991 ft 171 kts 18°
2026-05-07 04:43 18.94919 73.13803 3001 ft 167 kts 358°
2026-05-07 04:43 18.96094 73.13699 3006 ft 166 kts 356°
2026-05-07 04:43 18.97257 73.13604 3007 ft 166 kts 357°
2026-05-07 04:44 18.98410 73.13509 3016 ft 167 kts 356°
2026-05-07 04:44 18.99574 73.13399 3009 ft 165 kts 356°
2026-05-07 04:44 19.00722 73.13258 3020 ft 168 kts 343°
2026-05-07 04:44 19.01642 73.12470 3013 ft 174 kts 307°
2026-05-07 04:45 19.02250 73.11364 3019 ft 175 kts 303°
2026-05-07 04:45 19.02860 73.10246 3014 ft 175 kts 303°
2026-05-07 04:45 19.03469 73.09129 3013 ft 175 kts 304°
2026-05-07 04:45 19.04079 73.08009 3013 ft 175 kts 304°
2026-05-07 04:46 19.04687 73.06895 3011 ft 175 kts 303°
2026-05-07 04:46 19.05303 73.05765 2836 ft 175 kts 303°
2026-05-07 04:46 19.05904 73.04664 2670 ft 174 kts 303°
2026-05-07 04:46 19.06508 73.03557 2499 ft 172 kts 303°
2026-05-07 04:47 19.07108 73.02455 2328 ft 172 kts 303°
2026-05-07 04:47 19.07707 73.01358 2155 ft 171 kts 302°
2026-05-07 04:47 19.08266 73.00311 1990 ft 157 kts 303°
2026-05-07 04:47 19.08814 72.99300 1838 ft 155 kts 303°
2026-05-07 04:48 19.09088 72.98216 1714 ft 161 kts 272°
2026-05-07 04:48 19.09003 72.97044 1535 ft 159 kts 271°
2026-05-07 04:48 19.08990 72.95880 1371 ft 158 kts 272°
2026-05-07 04:48 19.08977 72.94716 1199 ft 157 kts 272°
2026-05-07 04:49 19.08961 72.93572 1022 ft 152 kts 271°
2026-05-07 04:49 19.08946 72.92503 862 ft 141 kts 272°
2026-05-07 04:49 19.08938 72.91486 683 ft 136 kts 272°
2026-05-07 04:49 19.08921 72.90475 524 ft 137 kts 268°
2026-05-07 04:50 19.08896 72.89464 386 ft 138 kts 272°
2026-05-07 04:50 19.08888 72.88442 217 ft 140 kts 270°
2026-05-07 04:50 19.08879 72.87414 58 ft 141 kts 270°
2026-05-07 04:50 19.08868 72.86446 37 ft 110 kts 270°
2026-05-07 04:51 19.08860 72.85821 29 ft 43 kts 268°
2026-05-07 04:51 19.08894 72.85642 29 ft 13 kts 291°
2026-05-07 04:51 19.08915 72.85580 29 ft 3 kts 289°
2026-05-07 04:51 19.08926 72.85548 29 ft 6 kts 290°
2026-05-07 04:52 19.08954 72.85503 29 ft 8 kts 319°
2026-05-07 04:52 19.09006 72.85509 30 ft 9 kts 55°
2026-05-07 04:52 19.09027 72.85583 31 ft 11 kts 86°
2026-05-07 04:52 19.09028 72.85678 32 ft 13 kts 90°
2026-05-07 04:53 19.09029 72.85783 34 ft 14 kts 89°
2026-05-07 04:53 19.09030 72.85898 34 ft 16 kts 89°
2026-05-07 04:53 19.09033 72.86029 34 ft 18 kts 89°
2026-05-07 04:53 19.09034 72.86141 35 ft 16 kts 89°
2026-05-07 04:54 19.09036 72.86268 34 ft 18 kts 89°
2026-05-07 04:54 19.09039 72.86414 34 ft 20 kts 89°
2026-05-07 04:54 19.09041 72.86568 36 ft 20 kts 89°
2026-05-07 04:54 19.09042 72.86726 37 ft 22 kts 90°
2026-05-07 04:55 19.09043 72.86848 37 ft 14 kts 89°
2026-05-07 04:55 19.09044 72.86969 34 ft 18 kts 89°
2026-05-07 04:55 19.09046 72.87116 33 ft 21 kts 89°
2026-05-07 04:55 19.09091 72.87247 34 ft 10 kts 23°
2026-05-07 04:56 19.09166 72.87265 36 ft 11 kts
2026-05-07 04:56 19.09225 72.87238 39 ft 9 kts 301°
2026-05-07 04:56 19.09234 72.87157 39 ft 12 kts 270°
2026-05-07 04:56 19.09235 72.87055 40 ft 14 kts 272°
2026-05-07 04:57 19.09261 72.86984 42 ft 4 kts 311°
2026-05-07 04:57 19.09286 72.86968 43 ft 3 kts 360°
2026-05-07 04:57 19.09305 72.86980 44 ft 1 kts 45°
2026-05-07 04:57 19.09314 72.86990 44 ft 2 kts 53°
2026-05-07 04:58 19.09327 72.87011 44 ft 0 kts 57°
2026-05-07 04:58 19.09336 72.87026 44 ft 4 kts 59°
2026-05-07 04:58 19.09339 72.87032 44 ft 0 kts 59°
2026-05-07 04:58 19.09342 72.87037 44 ft 0 kts 59°